                ,  0.194,  0.291,  0.388,  0.485,  0.582,  0.679,  0.776,  0.873,  0.970,  1.067,  1.164,  1.261,  1.358,  1.455,  1.552,  1.650,  1.747,  1.844,  1.941,  2.038,  2.135,  2.232,  2.329,  2.426,  2.523,  2.620,  2.717,  2.814,  2.911,  3.008,  3.105,  3.202,  3.299,  3.396,  3.493,  3.590,  3.687,  3.784,  3.881,  3.978,  4.075,  4.172,  4.269,  4.366,  4.463,  4.560,  4.657,  4.754,  4.851,  4.949,  5.046,  5.143,  5.240,  5.337,  5.434,  5.531,  5.628,  5.725,  5.822,  5.919,  6.016,  6.113,  6.210,  6.307,  6.404,  6.501,  6.598,  6.695,  6.792,  6.889,  6.986,  7.083,  7.180,  7.277,  7.374,  7.471,  7.568,  7.665,  7.762,  7.859,  7.956,  8.053,  8.150,  8.248,  8.345,  8.442,  8.539,  8.636,  8.733,  8.830,  8.927,  9.024,  9.121,  9.218,  9.315,  9.412,  9.509,  9.606,  9.703
2007/10/29 00:00,  999.0,  999.0,  999.0,  999.0,  999.0,  999.0,  999.0,  999.0,  999.0,    4.1,    5.3,    5.5,  999.0,    5.9,    6.3,    6.0,    6.5,    6.7,    6.3,    6.5,    5.8,    5.2,    4.4,    3.7,    3.7,    3.6,    3.5,    4.0,    3.7,    2.9,    2.8,    3.7,    4.4,    4.1,    4.2,    4.6,    4.8,    4.1,    3.5,    4.0,    4.9,    5.3,    5.7,    6.2,    5.9,    6.0,    6.2,    5.7,    5.1,    4.5,    3.1,    2.4,    1.8,    0.7,   -0.7,   -2.0,   -2.4,   -2.4,   -2.4,   -2.1,   -1.8,   -1.9,   -1.7,   -1.5,   -1.2,   -0.7,   -0.4,    0.1,    0.4,    0.7,    0.6,    0.4,    0.4,   -0.1,   -0.8,   -1.0,   -1.0,   -0.7,   -0.6,   -0.3,   -0.3,   -0.6,   -0.5,   -0.2,    0.4,    0.7,    1.0,  999.0,  999.0,  999.0,  999.0,  999.0,  999.0,  999.0,  999.0,  999.0,  999.0,  999.0,  999.0
2007/10/29 00:10,  999.0,  999.0,  999.0,  999.0,  999.0,  999.0,  999.0,  999.0,  999.0,    4.5,    4.7,    5.4,  999.0,    5.9,    6.1,    6.1,    5.6,    6.4,    6.3,    6.3,    5.8,    5.0,    4.5,    3.9,    3.7,    3.4,    3.4,    3.6,    3.3,    2.7,    2.8,    3.2,    4.2,    4.4,    4.4,    4.9,    5.3,    4.6,    3.9,    4.3,    4.7,    5.1,    5.5,    5.7,  999.0,  999.0,    5.7,    5.0,    4.8,    4.6,    3.1,    2.6,    1.7,   -0.1,   -1.5,   -2.7,   -3.1,   -3.1,   -2.8,   -2.5,   -2.3,   -2.0,   -1.7,   -1.2,   -0.8,   -0.3,   -0.0,    0.2,    0.5,    0.7,    0.6,    0.5,    0.4,   -0.1,   -0.9,   -1.1,   -1.0,   -0.7,   -0.4,   -0.3,   -0.4,   -0.6,   -0.5,   -0.1,  999.0,  999.0,  999.0,  999.0,  999.0,  999.0,  999.0,  999.0,  999.0,  999.0,  999.0,  999.0,  999.0,  999.0,  999.0
2007/10/29 00:20,  999.0,  999.0,  999.0,    3.1,  999.0,  999.0,    2.3,  999.0,  999.0,    4.4,    4.3,    3.8,    4.3,    5.2,    5.3,    5.3,    5.8,    6.4,    6.6,    6.5,    6.1,    5.3,    5.4,    5.7,    4.6,    4.4,    3.9,    4.1,    3.7,    3.4,    3.3,    3.2,    3.9,    4.5,    4.8,    5.0,    5.0,    4.8,    4.3,    4.4,    4.9,    5.1,    5.4,    5.3,    5.8,    5.8,    5.3,    5.2,    5.0,    4.6,    3.5,    2.5,    1.8,    0.5,   -1.1,   -2.5,   -3.1,   -3.6,   -3.7,   -3.1,   -2.7,   -2.3,   -1.8,   -1.2,   -0.5,   -0.2,   -0.0,    0.3,    0.5,    0.8,    0.6,    0.6,    0.5,   -0.2,   -0.8,   -0.9,   -0.7,  999.0,  999.0,  999.0,  999.0,  999.0,  999.0,  999.0,  999.0,  999.0,  999.0,  999.0,  999.0,  999.0,  999.0,  999.0,  999.0,  999.0,  999.0,  999.0,  999.0,  999.0,  999.0
2007/10/29 00:30,  999.0,  999.0,  999.0,  999.0,  999.0,  999.0,  999.0,  999.0,  999.0,  999.0,  999.0,  999.0,  999.0,  999.0,  999.0,    5.8,  999.0,    7.0,  999.0,  999.0,  999.0,  999.0,  999.0,  999.0,  999.0,  999.0,    5.0,    5.1,  999.0,  999.0,  999.0,  999.0,  999.0,  999.0,  999.0,  999.0,  999.0,  999.0,  999.0,    3.9,    4.3,    4.6,    4.9,    4.5,    5.0,    5.6,    5.6,    5.4,    5.3,    5.0,    4.6,    3.7,    2.9,    1.6,   -0.1,   -1.4,   -2.4,   -3.0,   -3.1,   -2.5,   -2.2,   -2.1,   -1.6,   -1.0,   -0.5,   -0.0,    0.1,    0.2,    0.4,    0.6,    0.5,    0.8,    0.5,  999.0,  999.0,  999.0,  999.0,  999.0,  999.0,  999.0,  999.0,  999.0,  999.0,  999.0,  999.0,  999.0,  999.0,  999.0,  999.0,  999.0,  999.0,  999.0,  999.0,  999.0,  999.0,  999.0,  999.0,  999.0,  999.0
2007/10/29 00:40,  999.0,  999.0,  999.0,  999.0,    4.3,    4.2,    3.9,  999.0,  999.0,  999.0,    3.0,    3.2,  999.0,  999.0,  999.0,  999.0,  999.0,  999.0,  999.0,  999.0,  999.0,  999.0,  999.0,    4.4,    3.2,    2.7,  999.0,    3.2,  999.0,  999.0,  999.0,  999.0,    4.6,    4.5,    4.5,  999.0,  999.0,  999.0,  999.0,  999.0,  999.0,  999.0,  999.0,  999.0,  999.0,  999.0,  999.0,  999.0,    5.9,    5.4,    5.2,    4.8,    3.1,    1.2,   -0.4,   -1.6,   -2.7,   -3.2,   -3.1,   -2.9,   -2.7,   -2.6,   -2.2,   -1.3,   -0.5,   -0.1,   -0.0,    0.1,    0.2,  999.0,  999.0,  999.0,  999.0,  999.0,  999.0,  999.0,  999.0,  999.0,  999.0,  999.0,  999.0,  999.0,  999.0,  999.0,  999.0,  999.0,  999.0,  999.0,  999.0,  999.0,  999.0,  999.0,  999.0,  999.0,  999.0,  999.0,  999.0,  999.0,  999.0
2007/10/29 00:50,  999.0,  999.0,  999.0,    4.1,    4.0,    4.8,  999.0,    4.2,    4.0,    4.3,    4.7,    4.7,    5.2,    5.3,    5.4,    5.6,    6.2,    6.6,    6.9,    6.6,    5.7,    5.3,    5.0,    4.8,    3.5,    3.2,    3.5,    3.4,    3.5,  999.0,  999.0,    3.5,    4.0,    4.1,  999.0,    4.9,  999.0,  999.0,  999.0,  999.0,  999.0,  999.0,  999.0,  999.0,  999.0,  999.0,  999.0,  999.0,  999.0,  999.0,  999.0,  999.0,    2.9,    1.2,   -0.3,   -1.2,   -2.1,   -2.6,   -2.6,   -2.5,   -2.3,   -2.3,   -2.0,   -1.1,  999.0,  999.0,  999.0,  999.0,  999.0,  999.0,  999.0,  999.0,  999.0,  999.0,  999.0,  999.0,  999.0,  999.0,  999.0,  999.0,  999.0,  999.0,  999.0,  999.0,  999.0,  999.0,  999.0,  999.0,  999.0,  999.0,  999.0,  999.0,  999.0,  999.0,  999.0,  999.0,  999.0,  999.0,  999.0
2007/10/29 01:00,  999.0,  999.0,  999.0,    3.3,    4.0,    4.7,    4.5,    4.2,    3.8,    4.9,    5.1,    5.2,    5.4,    5.4,    5.3,    5.6,    5.9,    6.6,    6.4,    6.3,    5.7,    5.3,    5.5,    5.0,    4.7,    3.8,    3.5,    3.1,    3.0,    2.5,    3.6,    2.7,    3.6,    3.6,    3.9,    5.0,  999.0,  999.0,  999.0,  999.0,  999.0,  999.0,  999.0,  999.0,  999.0,  999.0,  999.0,  999.0,  999.0,  999.0,  999.0,  999.0,  999.0,    1.2,   -0.1,   -1.2,   -1.7,   -2.4,   -2.3,   -2.6,   -2.4,  999.0,  999.0,  999.0,  999.0,  999.0,  999.0,  999.0,  999.0,  999.0,  999.0,  999.0,  999.0,  999.0,  999.0,  999.0,  999.0,  999.0,  999.0,  999.0,  999.0,  999.0,  999.0,  999.0,  999.0,  999.0,  999.0,  999.0,  999.0,  999.0,  999.0,  999.0,  999.0,  999.0,  999.0,  999.0,  999.0,  999.0,  999.0
2007/10/29 01:10,  999.0,  999.0,  999.0,    3.3,    4.5,    4.8,    4.5,    4.4,    4.6,    5.0,    5.6,    5.7,    5.9,    6.1,    5.7,    5.8,    5.6,    5.9,    6.3,    5.7,    5.3,    5.3,    5.4,    5.2,  999.0,  999.0,  999.0,    2.7,    2.6,    2.5,    2.9,    2.8,    3.3,    3.9,  999.0,  999.0,  999.0,  999.0,  999.0,  999.0,  999.0,  999.0,  999.0,  999.0,  999.0,  999.0,  999.0,  999.0,  999.0,  999.0,  999.0,  999.0,  999.0,  999.0,  999.0,   -0.4,   -1.0,   -2.1,  999.0,   -2.1,  999.0,  999.0,  999.0,  999.0,  999.0,  999.0,  999.0,  999.0,  999.0,  999.0,  999.0,  999.0,  999.0,  999.0,  999.0,  999.0,  999.0,  999.0,  999.0,  999.0,  999.0,  999.0,  999.0,  999.0,  999.0,  999.0,  999.0,  999.0,  999.0,  999.0,  999.0,  999.0,  999.0,  999.0,  999.0,  999.0,  999.0,  999.0,  999.0
2007/10/29 01:20,  999.0,  999.0,  999.0,    3.3,    4.5,    4.9,    4.6,    4.6,    4.7,    5.2,    5.7,    5.9,    6.1,    6.1,    5.5,    5.8,    6.0,    5.8,    5.7,    5.7,    4.8,    4.7,    5.4,    4.9,    4.8,    4.6,    4.4,    3.8,    3.1,    2.7,    2.8,    3.1,    3.0,  999.0,  999.0,  999.0,  999.0,  999.0,  999.0,  999.0,  999.0,  999.0,  999.0,  999.0,  999.0,  999.0,  999.0,  999.0,  999.0,  999.0,  999.0,  999.0,  999.0,  999.0,  999.0,  999.0,  999.0,  999.0,  999.0,  999.0,  999.0,  999.0,  999.0,  999.0,  999.0,  999.0,  999.0,  999.0,  999.0,  999.0,  999.0,  999.0,  999.0,  999.0,  999.0,  999.0,  999.0,  999.0,  999.0,  999.0,  999.0,  999.0,  999.0,  999.0,  999.0,  999.0,  999.0,  999.0,  999.0,  999.0,  999.0,  999.0,  999.0,  999.0,  999.0,  999.0,  999.0,  999.0,  999.0
2007/10/29 01:30,  999.0,  999.0,  999.0,    3.9,    5.0,    5.2,    4.6,    4.7,    4.7,    5.0,    5.3,    5.4,  999.0,    5.5,    6.0,    6.0,  999.0,  999.0,    5.7,    5.5,    5.0,    4.8,    4.8,    5.1,    4.8,    4.8,    4.4,    4.1,    3.1,    2.7,  999.0,  999.0,    3.5,    3.7,    4.2,    4.8,  999.0,  999.0,  999.0,  999.0,  999.0,  999.0,  999.0,  999.0,  999.0,  999.0,  999.0,  999.0,  999.0,  999.0,  999.0,  999.0,  999.0,  999.0,  999.0,  999.0,  999.0,  999.0,  999.0,  999.0,  999.0,  999.0,  999.0,  999.0,  999.0,  999.0,  999.0,  999.0,  999.0,  999.0,  999.0,  999.0,  999.0,  999.0,  999.0,  999.0,  999.0,  999.0,  999.0,  999.0,  999.0,  999.0,  999.0,  999.0,  999.0,  999.0,  999.0,  999.0,  999.0,  999.0,  999.0,  999.0,  999.0,  999.0,  999.0,  999.0,  999.0,  999.0,  999.0
2007/10/29 01:40,    2.9,  999.0,  999.0,    3.3,  999.0,  999.0,    4.9,    4.8,    4.5,    4.6,  999.0,    5.2,    5.5,    5.7,    5.5,    5.7,    5.8,    6.4,    5.9,    5.8,    5.3,    5.1,    5.2,    5.1,    5.4,    5.4,    4.2,    4.6,    4.1,    3.6,    4.0,    3.6,    3.4,    3.8,    3.9,  999.0,  999.0,  999.0,  999.0,  999.0,  999.0,  999.0,  999.0,  999.0,  999.0,  999.0,  999.0,  999.0,  999.0,  999.0,  999.0,  999.0,  999.0,  999.0,  999.0,  999.0,  999.0,  999.0,  999.0,  999.0,  999.0,  999.0,  999.0,  999.0,  999.0,  999.0,  999.0,  999.0,  999.0,  999.0,  999.0,  999.0,  999.0,  999.0,  999.0,  999.0,  999.0,  999.0,  999.0,  999.0,  999.0,  999.0,  999.0,  999.0,  999.0,  999.0,  999.0,  999.0,  999.0,  999.0,  999.0,  999.0,  999.0,  999.0,  999.0,  999.0,  999.0,  999.0,  999.0
2007/10/29 01:50,    2.4,    3.1,    3.4,    3.5,    4.4,  999.0,    4.7,    4.3,    3.8,    4.4,  999.0,  999.0,    5.7,    5.6,    5.4,    5.3,    5.9,    5.9,    5.7,    5.2,  999.0,    5.4,    5.6,    6.0,    6.1,    5.8,    5.9,  999.0,    5.5,    4.9,    5.2,    4.8,    3.5,    3.2,    3.8,  999.0,  999.0,  999.0,  999.0,  999.0,  999.0,  999.0,  999.0,  999.0,  999.0,  999.0,  999.0,  999.0,  999.0,  999.0,  999.0,  999.0,  999.0,  999.0,  999.0,  999.0,  999.0,  999.0,  999.0,  999.0,  999.0,  999.0,  999.0,  999.0,  999.0,  999.0,  999.0,  999.0,  999.0,  999.0,  999.0,  999.0,  999.0,  999.0,  999.0,  999.0,  999.0,  999.0,  999.0,  999.0,  999.0,  999.0,  999.0,  999.0,  999.0,  999.0,  999.0,  999.0,  999.0,  999.0,  999.0,  999.0,  999.0,  999.0,  999.0,  999.0,  999.0,  999.0,  999.0
2007/10/29 02:00,    1.7,  999.0,  999.0,    3.4,    4.1,    4.3,    3.8,    4.0,    4.2,    4.5,    4.4,    4.5,  999.0,  999.0,  999.0,    5.3,    5.3,    5.6,    5.9,    5.4,    5.5,    5.6,    6.3,    6.9,    7.0,    6.6,  999.0,    5.7,    5.7,    5.7,    5.8,    5.0,    3.9,    3.7,  999.0,  999.0,  999.0,  999.0,  999.0,  999.0,  999.0,  999.0,  999.0,  999.0,  999.0,  999.0,  999.0,  999.0,  999.0,  999.0,  999.0,  999.0,  999.0,  999.0,  999.0,  999.0,  999.0,  999.0,  999.0,  999.0,  999.0,  999.0,  999.0,  999.0,  999.0,  999.0,  999.0,  999.0,  999.0,  999.0,  999.0,  999.0,  999.0,  999.0,  999.0,  999.0,  999.0,  999.0,  999.0,  999.0,  999.0,  999.0,  999.0,  999.0,  999.0,  999.0,  999.0,  999.0,  999.0,  999.0,  999.0,  999.0,  999.0,  999.0,  999.0,  999.0,  999.0,  999.0,  999.0
2007/10/29 02:10,  999.0,  999.0,    2.7,    3.7,    4.1,    4.1,    3.8,    3.9,    4.3,    4.6,    4.9,    5.2,    4.4,    5.2,    5.4,    5.6,    5.3,    5.1,    5.2,    5.3,    4.5,    5.3,    6.2,    6.9,    6.9,    6.5,  999.0,    5.7,    5.9,    5.9,    5.7,    5.8,    4.6,    3.9,  999.0,  999.0,  999.0,  999.0,  999.0,  999.0,  999.0,  999.0,  999.0,  999.0,  999.0,  999.0,  999.0,  999.0,  999.0,  999.0,  999.0,  999.0,  999.0,  999.0,  999.0,  999.0,  999.0,  999.0,  999.0,  999.0,  999.0,  999.0,  999.0,  999.0,  999.0,  999.0,  999.0,  999.0,  999.0,  999.0,  999.0,  999.0,  999.0,  999.0,  999.0,  999.0,  999.0,  999.0,  999.0,  999.0,  999.0,  999.0,  999.0,  999.0,  999.0,  999.0,  999.0,  999.0,  999.0,  999.0,  999.0,  999.0,  999.0,  999.0,  999.0,  999.0,  999.0,  999.0,  999.0
2007/10/29 02:20,  999.0,  999.0,    2.5,    3.5,    3.6,    3.7,    3.7,    4.0,    4.4,    4.4,  999.0,  999.0,    4.3,    5.0,    4.8,    4.9,    4.6,    4.9,    4.2,    5.0,  999.0,    5.1,    5.6,    6.1,  999.0,    7.0,    6.8,    6.7,    6.7,    7.0,    6.7,    6.2,    5.3,  999.0,  999.0,  999.0,  999.0,  999.0,  999.0,  999.0,  999.0,  999.0,  999.0,  999.0,  999.0,  999.0,  999.0,  999.0,  999.0,  999.0,  999.0,  999.0,  999.0,  999.0,  999.0,  999.0,  999.0,  999.0,  999.0,  999.0,  999.0,  999.0,  999.0,  999.0,  999.0,  999.0,  999.0,  999.0,  999.0,  999.0,  999.0,  999.0,  999.0,  999.0,  999.0,  999.0,  999.0,  999.0,  999.0,  999.0,  999.0,  999.0,  999.0,  999.0,  999.0,  999.0,  999.0,  999.0,  999.0,  999.0,  999.0,  999.0,  999.0,  999.0,  999.0,  999.0,  999.0,  999.0,  999.0
2007/10/29 02:30,  999.0,  999.0,    2.7,  999.0,  999.0,    3.5,    3.8,    4.1,    4.2,    4.2,    4.0,    4.2,  999.0,    4.8,    4.8,    5.1,    5.1,    5.1,    4.7,  999.0,    5.5,    4.9,  999.0,  999.0,    7.4,    6.9,    6.4,    6.7,    6.4,    6.4,    7.0,    6.7,    5.7,  999.0,  999.0,  999.0,  999.0,  999.0,  999.0,  999.0,  999.0,  999.0,  999.0,  999.0,  999.0,  999.0,  999.0,  999.0,  999.0,  999.0,  999.0,  999.0,  999.0,  999.0,  999.0,  999.0,  999.0,  999.0,  999.0,  999.0,  999.0,  999.0,  999.0,  999.0,  999.0,  999.0,  999.0,  999.0,  999.0,  999.0,  999.0,  999.0,  999.0,  999.0,  999.0,  999.0,  999.0,  999.0,  999.0,  999.0,  999.0,  999.0,  999.0,  999.0,  999.0,  999.0,  999.0,  999.0,  999.0,  999.0,  999.0,  999.0,  999.0,  999.0,  999.0,  999.0,  999.0,  999.0,  999.0
2007/10/29 02:40,  999.0,  999.0,  999.0,    3.3,    3.6,    3.9,    3.8,    4.0,    4.1,    4.3,    4.3,    4.3,    4.6,    4.8,    4.5,    5.0,    5.1,    5.2,  999.0,  999.0,  999.0,    5.7,  999.0,    7.1,    7.5,    7.3,    7.1,    7.1,    6.7,    6.5,    7.1,    7.2,    6.1,    6.3,  999.0,  999.0,  999.0,  999.0,  999.0,  999.0,  999.0,  999.0,  999.0,  999.0,  999.0,  999.0,  999.0,  999.0,  999.0,  999.0,  999.0,  999.0,  999.0,  999.0,  999.0,  999.0,  999.0,  999.0,  999.0,  999.0,  999.0,  999.0,  999.0,  999.0,  999.0,  999.0,  999.0,  999.0,  999.0,  999.0,  999.0,  999.0,  999.0,  999.0,  999.0,  999.0,  999.0,  999.0,  999.0,  999.0,  999.0,  999.0,  999.0,  999.0,  999.0,  999.0,  999.0,  999.0,  999.0,  999.0,  999.0,  999.0,  999.0,  999.0,  999.0,  999.0,  999.0,  999.0,  999.0
2007/10/29 02:50,  999.0,    0.7,    2.7,    3.4,    3.3,    3.8,    3.8,    4.1,    4.0,    4.4,    5.0,    5.1,    5.0,    4.7,    4.6,    5.1,    5.0,    4.8,    5.4,    6.0,    6.4,    6.5,    7.3,    7.8,    8.2,    8.4,  999.0,    7.2,    7.6,    7.4,    7.5,    7.3,    6.9,    6.1,  999.0,  999.0,  999.0,  999.0,  999.0,  999.0,  999.0,  999.0,  999.0,  999.0,  999.0,  999.0,  999.0,  999.0,  999.0,  999.0,  999.0,  999.0,  999.0,  999.0,  999.0,  999.0,  999.0,  999.0,  999.0,  999.0,  999.0,  999.0,  999.0,  999.0,  999.0,  999.0,  999.0,  999.0,  999.0,  999.0,  999.0,  999.0,  999.0,  999.0,  999.0,  999.0,  999.0,  999.0,  999.0,  999.0,  999.0,  999.0,  999.0,  999.0,  999.0,  999.0,  999.0,  999.0,  999.0,  999.0,  999.0,  999.0,  999.0,  999.0,  999.0,  999.0,  999.0,  999.0,  999.0
2007/10/29 03:00,  999.0,  999.0,    2.6,    3.1,    3.3,    3.7,    4.2,    4.6,    4.7,    5.3,    5.4,    5.6,    5.2,    5.1,    5.1,    5.6,    5.2,    5.1,    5.9,    6.6,    6.6,    6.8,    7.9,    8.8,  999.0,  999.0,    7.9,    8.0,    7.9,    8.6,    7.5,    7.1,    6.9,    6.0,    5.6,  999.0,  999.0,  999.0,  999.0,  999.0,  999.0,  999.0,  999.0,  999.0,  999.0,  999.0,  999.0,  999.0,  999.0,  999.0,  999.0,  999.0,  999.0,  999.0,  999.0,  999.0,  999.0,  999.0,  999.0,  999.0,  999.0,  999.0,  999.0,  999.0,  999.0,  999.0,  999.0,  999.0,  999.0,  999.0,  999.0,  999.0,  999.0,  999.0,  999.0,  999.0,  999.0,  999.0,  999.0,  999.0,  999.0,  999.0,  999.0,  999.0,  999.0,  999.0,  999.0,  999.0,  999.0,  999.0,  999.0,  999.0,  999.0,    4.8,  999.0,    4.8,  999.0,  999.0,    4.8
2007/10/29 03:10,  999.0,  999.0,    2.9,    3.1,    4.1,    3.8,    3.9,    4.5,    4.4,    5.0,    5.0,    5.2,    5.3,    5.4,    5.1,    5.8,    5.3,    5.3,    5.9,  999.0,  999.0,    6.6,    7.9,    8.7,    8.9,    9.1,    8.8,    8.5,    8.3,    8.1,    8.2,    7.3,    6.7,    5.8,    5.8,    5.7,  999.0,  999.0,  999.0,  999.0,  999.0,  999.0,  999.0,  999.0,  999.0,  999.0,  999.0,  999.0,  999.0,  999.0,  999.0,  999.0,  999.0,  999.0,  999.0,  999.0,  999.0,  999.0,  999.0,  999.0,  999.0,  999.0,  999.0,  999.0,  999.0,  999.0,  999.0,  999.0,  999.0,  999.0,  999.0,  999.0,  999.0,  999.0,  999.0,  999.0,  999.0,  999.0,  999.0,  999.0,  999.0,  999.0,  999.0,  999.0,  999.0,  999.0,  999.0,  999.0,  999.0,  999.0,  999.0,  999.0,  999.0,  999.0,  999.0,  999.0,  999.0,  999.0,  999.0
2007/10/29 03:20,  999.0,  999.0,    1.9,  999.0,    3.6,    3.8,    4.2,    4.4,    4.7,    4.9,    4.9,    4.9,    5.1,    5.4,    5.0,    5.1,    5.0,    5.4,    5.5,    5.8,    6.1,    6.5,    8.1,    8.9,    9.0,    9.1,    8.5,    8.8,    8.7,    8.6,    8.7,    6.8,    6.7,    5.6,    5.8,  999.0,  999.0,  999.0,  999.0,  999.0,  999.0,  999.0,  999.0,  999.0,  999.0,  999.0,  999.0,  999.0,  999.0,  999.0,  999.0,  999.0,  999.0,  999.0,  999.0,  999.0,  999.0,  999.0,  999.0,  999.0,  999.0,  999.0,  999.0,  999.0,  999.0,  999.0,  999.0,  999.0,  999.0,  999.0,  999.0,  999.0,  999.0,  999.0,  999.0,  999.0,  999.0,  999.0,  999.0,  999.0,  999.0,  999.0,  999.0,  999.0,  999.0,  999.0,  999.0,  999.0,  999.0,  999.0,  999.0,  999.0,  999.0,  999.0,  999.0,  999.0,  999.0,  999.0,  999.0
2007/10/29 03:30,  999.0,  999.0,    2.7,    3.6,    4.0,    4.3,    4.2,    4.4,    4.9,  999.0,    4.7,    5.1,    5.1,    5.1,    4.5,  999.0,    4.9,    5.1,    5.2,    5.4,    6.1,    7.0,    8.4,  999.0,    9.0,    8.7,    7.9,    8.2,    8.5,    8.5,  999.0,  999.0,  999.0,    5.5,  999.0,  999.0,  999.0,  999.0,  999.0,  999.0,  999.0,  999.0,  999.0,  999.0,  999.0,  999.0,  999.0,  999.0,  999.0,  999.0,  999.0,  999.0,  999.0,  999.0,  999.0,  999.0,  999.0,  999.0,    2.3,    2.3,    1.8,    1.5,    1.1,    0.4,    0.6,    1.0,    1.2,    1.3,    0.9,    1.2,   -0.0,  999.0,  999.0,  999.0,  999.0,  999.0,  999.0,  999.0,  999.0,  999.0,  999.0,  999.0,  999.0,  999.0,  999.0,  999.0,  999.0,  999.0,  999.0,  999.0,  999.0,  999.0,  999.0,  999.0,  999.0,  999.0,  999.0,  999.0,  999.0
2007/10/29 03:40,  999.0,  999.0,    3.0,    3.7,    4.2,    4.1,    4.3,    4.6,    4.7,    4.6,    5.0,    5.3,    5.4,    4.8,    4.6,    5.0,    4.5,    5.1,  999.0,    6.0,    6.5,    7.3,    8.8,    9.0,    9.4,    8.5,    7.8,    8.2,  999.0,  999.0,  999.0,  999.0,  999.0,    5.4,  999.0,  999.0,  999.0,  999.0,  999.0,  999.0,  999.0,  999.0,  999.0,  999.0,  999.0,  999.0,  999.0,  999.0,  999.0,  999.0,  999.0,  999.0,  999.0,  999.0,    5.9,    5.5,    4.2,    2.8,    2.0,    1.8,    1.6,    1.4,    0.9,    0.4,    0.2,    0.1,    0.5,    0.7,    0.6,    0.7,  999.0,  999.0,  999.0,  999.0,  999.0,  999.0,  999.0,  999.0,  999.0,  999.0,  999.0,  999.0,  999.0,  999.0,  999.0,  999.0,  999.0,  999.0,  999.0,  999.0,  999.0,  999.0,  999.0,  999.0,  999.0,  999.0,  999.0,  999.0,  999.0
2007/10/29 03:50,  999.0,  999.0,    2.8,    3.8,    4.5,    4.1,    4.4,    4.0,    4.1,    4.3,    5.0,    5.1,    5.6,    4.3,    4.3,    4.7,    4.3,    5.0,    5.0,    6.0,    7.0,    8.2,    8.8,    8.6,    9.1,    8.3,    8.1,    7.5,    8.0,  999.0,  999.0,  999.0,  999.0,  999.0,  999.0,  999.0,  999.0,  999.0,  999.0,  999.0,  999.0,  999.0,  999.0,  999.0,  999.0,  999.0,  999.0,  999.0,  999.0,    6.2,    6.4,    6.7,    6.3,    5.9,    5.5,    4.8,    3.2,    1.7,    1.1,    0.7,    0.8,    0.4,    0.3,    0.6,    0.6,    0.6,    0.5,    0.6,    0.0,    0.4,   -0.2,  999.0,  999.0,  999.0,  999.0,  999.0,  999.0,  999.0,  999.0,  999.0,  999.0,  999.0,  999.0,  999.0,  999.0,  999.0,  999.0,  999.0,  999.0,  999.0,  999.0,  999.0,  999.0,  999.0,  999.0,  999.0,  999.0,  999.0,  999.0
2007/10/29 04:00,  999.0,  999.0,  999.0,    4.2,    4.5,    4.3,    4.2,    4.5,    4.4,    4.8,    5.0,    5.3,    5.7,  999.0,    4.7,    5.1,    5.3,    5.6,    6.0,    6.6,    6.9,    8.0,    8.8,    8.8,    8.8,    8.8,    7.5,    7.5,    7.7,    7.6,  999.0,  999.0,  999.0,  999.0,  999.0,  999.0,  999.0,  999.0,  999.0,  999.0,  999.0,  999.0,  999.0,  999.0,  999.0,  999.0,  999.0,  999.0,  999.0,    7.0,    6.8,  999.0,  999.0,  999.0,  999.0,  999.0,  999.0,  999.0,  999.0,  999.0,  999.0,  999.0,  999.0,  999.0,  999.0,  999.0,  999.0,  999.0,  999.0,  999.0,  999.0,  999.0,  999.0,  999.0,  999.0,  999.0,  999.0,  999.0,  999.0,  999.0,  999.0,  999.0,  999.0,  999.0,  999.0,  999.0,  999.0,  999.0,  999.0,  999.0,  999.0,  999.0,  999.0,  999.0,  999.0,  999.0,  999.0,  999.0,  999.0
2007/10/29 04:10,   -0.0,    0.8,    3.2,    3.3,    3.8,    3.8,    3.8,    3.9,    4.3,    4.8,    5.1,    4.9,    5.5,    5.0,    5.3,    5.2,    5.9,    5.8,  999.0,    7.5,    6.7,    7.8,    8.9,    9.2,    8.8,    8.9,    8.5,    8.0,    7.4,    7.5,  999.0,  999.0,  999.0,    6.0,  999.0,    5.0,  999.0,  999.0,  999.0,  999.0,  999.0,  999.0,  999.0,  999.0,  999.0,  999.0,  999.0,  999.0,  999.0,  999.0,  999.0,  999.0,  999.0,  999.0,  999.0,  999.0,  999.0,  999.0,  999.0,  999.0,  999.0,  999.0,  999.0,  999.0,  999.0,  999.0,  999.0,  999.0,  999.0,  999.0,  999.0,  999.0,  999.0,  999.0,  999.0,  999.0,  999.0,  999.0,  999.0,  999.0,  999.0,  999.0,  999.0,  999.0,  999.0,  999.0,  999.0,  999.0,  999.0,  999.0,  999.0,  999.0,  999.0,  999.0,  999.0,  999.0,  999.0,  999.0,  999.0
2007/10/29 04:20,    0.0,    0.4,    2.7,    3.1,    3.5,    3.7,    3.6,    3.6,    4.1,    4.6,  999.0,    4.8,    5.1,    4.8,    5.1,    5.2,    5.6,    6.3,    6.0,    6.9,    6.9,    8.5,    9.2,  999.0,    9.2,    9.5,    9.8,    8.4,    8.3,    8.0,  999.0,  999.0,    7.1,    6.4,  999.0,  999.0,    5.2,  999.0,  999.0,  999.0,  999.0,  999.0,  999.0,  999.0,  999.0,  999.0,  999.0,  999.0,  999.0,  999.0,  999.0,  999.0,  999.0,  999.0,  999.0,  999.0,  999.0,  999.0,  999.0,  999.0,  999.0,  999.0,  999.0,  999.0,  999.0,  999.0,  999.0,  999.0,  999.0,  999.0,  999.0,  999.0,  999.0,  999.0,  999.0,  999.0,  999.0,  999.0,  999.0,  999.0,  999.0,  999.0,  999.0,  999.0,  999.0,  999.0,  999.0,  999.0,  999.0,  999.0,  999.0,  999.0,  999.0,  999.0,  999.0,  999.0,  999.0,  999.0,  999.0
2007/10/29 04:30,    0.0,    0.5,    2.8,    3.2,  999.0,    3.4,    3.5,    3.7,    4.0,    4.4,    4.3,    4.3,    4.4,    4.5,    4.6,    4.8,    4.8,    5.4,    6.1,    6.7,    7.0,    8.5,    9.8,  999.0,  999.0,    9.0,    9.1,    8.7,    8.4,    7.6,    7.7,  999.0,    6.0,    6.2,    5.2,  999.0,  999.0,  999.0,  999.0,  999.0,  999.0,  999.0,  999.0,  999.0,  999.0,  999.0,  999.0,  999.0,  999.0,  999.0,  999.0,  999.0,  999.0,  999.0,  999.0,  999.0,  999.0,  999.0,  999.0,  999.0,  999.0,  999.0,  999.0,  999.0,  999.0,  999.0,  999.0,  999.0,  999.0,  999.0,  999.0,  999.0,  999.0,  999.0,  999.0,  999.0,  999.0,  999.0,  999.0,  999.0,  999.0,  999.0,  999.0,  999.0,  999.0,  999.0,  999.0,  999.0,  999.0,  999.0,  999.0,  999.0,  999.0,  999.0,  999.0,  999.0,  999.0,  999.0,  999.0
2007/10/29 04:40,   -0.0,    0.2,    2.2,    2.7,    3.3,    3.4,    3.3,    3.7,  999.0,    4.2,    4.2,    4.2,    4.0,    4.4,    4.4,    4.4,    4.8,    5.8,  999.0,    6.4,    7.2,    8.4,    9.5,  999.0,  999.0,    8.1,    8.9,    8.3,    7.7,    7.6,    8.2,  999.0,  999.0,  999.0,  999.0,  999.0,  999.0,  999.0,  999.0,  999.0,  999.0,  999.0,  999.0,  999.0,  999.0,  999.0,  999.0,  999.0,  999.0,  999.0,  999.0,  999.0,  999.0,  999.0,  999.0,  999.0,  999.0,  999.0,  999.0,  999.0,  999.0,  999.0,  999.0,  999.0,  999.0,  999.0,  999.0,  999.0,  999.0,  999.0,  999.0,  999.0,  999.0,  999.0,  999.0,  999.0,  999.0,  999.0,  999.0,  999.0,  999.0,  999.0,  999.0,  999.0,  999.0,  999.0,  999.0,  999.0,  999.0,  999.0,  999.0,  999.0,  999.0,  999.0,  999.0,  999.0,  999.0,  999.0,  999.0
2007/10/29 04:50,  999.0,  999.0,    2.3,    2.8,    3.0,  999.0,  999.0,    3.4,    3.9,    3.9,    4.1,    4.2,    4.0,    4.3,    4.7,    4.5,    5.4,    6.0,    6.7,    7.1,  999.0,  999.0,    9.2,  999.0,  999.0,    8.8,    8.5,    8.0,    8.1,    7.6,    8.2,  999.0,  999.0,  999.0,  999.0,  999.0,  999.0,  999.0,  999.0,  999.0,  999.0,  999.0,  999.0,  999.0,  999.0,  999.0,  999.0,  999.0,  999.0,  999.0,  999.0,  999.0,  999.0,  999.0,  999.0,  999.0,  999.0,  999.0,  999.0,  999.0,  999.0,  999.0,  999.0,  999.0,  999.0,  999.0,  999.0,  999.0,  999.0,  999.0,  999.0,  999.0,  999.0,  999.0,  999.0,  999.0,  999.0,  999.0,  999.0,  999.0,  999.0,  999.0,  999.0,  999.0,  999.0,  999.0,  999.0,  999.0,  999.0,  999.0,  999.0,  999.0,  999.0,  999.0,  999.0,  999.0,  999.0,  999.0,  999.0
2007/10/29 05:00,  999.0,  999.0,  999.0,  999.0,  999.0,  999.0,  999.0,  999.0,  999.0,    4.3,    4.3,    4.4,    4.2,    4.9,    5.1,    4.9,    6.1,    6.7,    7.2,    7.4,    7.1,    7.5,    8.7,   10.1,   10.2,    8.7,  999.0,  999.0,  999.0,  999.0,  999.0,  999.0,  999.0,  999.0,  999.0,  999.0,  999.0,  999.0,  999.0,  999.0,  999.0,  999.0,  999.0,  999.0,  999.0,  999.0,  999.0,  999.0,  999.0,  999.0,  999.0,  999.0,  999.0,  999.0,  999.0,  999.0,  999.0,  999.0,  999.0,  999.0,  999.0,  999.0,  999.0,  999.0,  999.0,  999.0,  999.0,  999.0,  999.0,  999.0,  999.0,  999.0,  999.0,  999.0,  999.0,  999.0,  999.0,  999.0,  999.0,  999.0,  999.0,  999.0,  999.0,  999.0,  999.0,  999.0,  999.0,  999.0,  999.0,  999.0,  999.0,  999.0,  999.0,  999.0,  999.0,  999.0,  999.0,  999.0,  999.0
2007/10/29 05:10,  999.0,  999.0,  999.0,  999.0,  999.0,  999.0,  999.0,    4.1,    4.3,    4.5,  999.0,    4.4,    4.4,    4.9,    5.2,    5.4,    5.9,    6.5,    6.9,    7.3,    7.2,    7.4,    8.4,    9.7,  999.0,    8.7,  999.0,  999.0,  999.0,  999.0,  999.0,    6.3,  999.0,  999.0,  999.0,  999.0,  999.0,  999.0,  999.0,  999.0,  999.0,  999.0,  999.0,  999.0,  999.0,  999.0,  999.0,  999.0,  999.0,  999.0,  999.0,  999.0,  999.0,  999.0,  999.0,  999.0,  999.0,  999.0,  999.0,  999.0,  999.0,  999.0,  999.0,  999.0,  999.0,  999.0,  999.0,  999.0,  999.0,  999.0,  999.0,  999.0,  999.0,  999.0,  999.0,  999.0,  999.0,  999.0,  999.0,  999.0,  999.0,  999.0,  999.0,  999.0,  999.0,  999.0,  999.0,  999.0,  999.0,  999.0,  999.0,  999.0,  999.0,  999.0,  999.0,  999.0,  999.0,  999.0,  999.0
2007/10/29 05:20,  999.0,  999.0,  999.0,  999.0,  999.0,  999.0,    3.8,  999.0,    4.6,    4.6,    4.7,    4.4,    5.0,    5.3,    5.4,    5.4,    5.9,    6.6,    6.7,    7.1,    7.2,    7.1,    8.1,    9.1,  999.0,  999.0,  999.0,  999.0,  999.0,  999.0,  999.0,  999.0,  999.0,  999.0,  999.0,  999.0,  999.0,  999.0,  999.0,  999.0,  999.0,  999.0,  999.0,  999.0,  999.0,  999.0,  999.0,  999.0,  999.0,  999.0,  999.0,  999.0,  999.0,  999.0,  999.0,  999.0,  999.0,  999.0,  999.0,  999.0,  999.0,  999.0,  999.0,  999.0,  999.0,  999.0,  999.0,  999.0,  999.0,  999.0,  999.0,  999.0,  999.0,  999.0,  999.0,  999.0,  999.0,  999.0,  999.0,  999.0,  999.0,  999.0,  999.0,  999.0,  999.0,  999.0,  999.0,  999.0,  999.0,  999.0,  999.0,  999.0,  999.0,  999.0,  999.0,  999.0,  999.0,  999.0,  999.0
2007/10/29 05:30,  999.0,  999.0,  999.0,  999.0,  999.0,    3.3,  999.0,    4.2,    4.4,  999.0,    4.3,    4.5,    5.3,    5.0,    5.8,    5.8,    6.5,    6.9,  999.0,    6.7,    7.2,    8.1,    9.0,    9.6,  999.0,  999.0,  999.0,  999.0,  999.0,  999.0,  999.0,  999.0,  999.0,  999.0,  999.0,  999.0,  999.0,  999.0,  999.0,  999.0,  999.0,  999.0,  999.0,  999.0,  999.0,  999.0,  999.0,  999.0,  999.0,  999.0,  999.0,  999.0,  999.0,  999.0,  999.0,  999.0,  999.0,  999.0,  999.0,  999.0,  999.0,  999.0,  999.0,  999.0,  999.0,  999.0,  999.0,  999.0,  999.0,  999.0,  999.0,  999.0,  999.0,  999.0,  999.0,  999.0,  999.0,  999.0,  999.0,  999.0,  999.0,  999.0,  999.0,  999.0,  999.0,  999.0,  999.0,  999.0,  999.0,  999.0,  999.0,  999.0,  999.0,  999.0,  999.0,  999.0,  999.0,  999.0,  999.0
2007/10/29 05:40,  999.0,  999.0,  999.0,  999.0,  999.0,    3.0,    2.2,    4.2,    4.0,    4.8,  999.0,    4.7,    5.1,    4.9,    5.1,    5.8,    7.3,    6.3,    6.2,    6.9,    7.7,    8.3,    8.8,    9.0,  999.0,  999.0,  999.0,  999.0,  999.0,  999.0,  999.0,  999.0,  999.0,  999.0,  999.0,    4.9,  999.0,  999.0,  999.0,  999.0,  999.0,  999.0,  999.0,  999.0,  999.0,  999.0,  999.0,  999.0,  999.0,  999.0,  999.0,  999.0,  999.0,  999.0,  999.0,  999.0,  999.0,  999.0,  999.0,  999.0,  999.0,  999.0,  999.0,  999.0,  999.0,  999.0,  999.0,  999.0,  999.0,  999.0,  999.0,  999.0,  999.0,  999.0,  999.0,  999.0,  999.0,  999.0,  999.0,  999.0,  999.0,  999.0,  999.0,  999.0,  999.0,  999.0,  999.0,  999.0,  999.0,  999.0,  999.0,  999.0,  999.0,  999.0,  999.0,  999.0,  999.0,  999.0,  999.0
2007/10/29 05:50,  999.0,  999.0,  999.0,    3.4,    3.3,  999.0,    3.1,    3.4,    4.2,    4.5,    4.6,    4.6,    4.8,    4.7,    5.0,    6.0,    6.8,    6.7,    6.3,    6.6,    7.1,    8.1,  999.0,  999.0,  999.0,    8.7,  999.0,  999.0,  999.0,  999.0,  999.0,  999.0,  999.0,  999.0,  999.0,    4.5,  999.0,  999.0,  999.0,  999.0,  999.0,  999.0,  999.0,  999.0,  999.0,  999.0,  999.0,  999.0,  999.0,  999.0,  999.0,  999.0,  999.0,  999.0,  999.0,  999.0,  999.0,  999.0,  999.0,  999.0,  999.0,  999.0,  999.0,  999.0,  999.0,  999.0,  999.0,  999.0,  999.0,  999.0,  999.0,  999.0,  999.0,  999.0,  999.0,  999.0,  999.0,  999.0,  999.0,  999.0,  999.0,  999.0,  999.0,  999.0,  999.0,  999.0,  999.0,  999.0,  999.0,  999.0,  999.0,  999.0,  999.0,  999.0,  999.0,  999.0,  999.0,  999.0,  999.0
2007/10/29 06:00,    0.1,    1.2,    1.8,    2.5,    2.9,    3.0,    2.9,    3.2,    4.3,    4.5,    4.5,    4.3,    4.3,    4.4,    4.3,    5.4,    6.0,    6.1,    6.2,    6.5,    7.2,  999.0,  999.0,  999.0,    8.6,  999.0,  999.0,    8.2,  999.0,  999.0,  999.0,    7.4,  999.0,    6.6,    5.7,    5.0,    5.6,  999.0,  999.0,  999.0,  999.0,  999.0,  999.0,  999.0,  999.0,  999.0,  999.0,  999.0,  999.0,  999.0,  999.0,  999.0,  999.0,  999.0,  999.0,  999.0,  999.0,  999.0,  999.0,  999.0,  999.0,  999.0,  999.0,  999.0,  999.0,  999.0,  999.0,  999.0,  999.0,  999.0,  999.0,  999.0,  999.0,  999.0,  999.0,  999.0,  999.0,  999.0,  999.0,  999.0,  999.0,  999.0,  999.0,  999.0,  999.0,  999.0,  999.0,  999.0,  999.0,  999.0,  999.0,  999.0,   -1.3,   -1.4,   -1.4,  999.0,   -2.0,  999.0,  999.0
2007/10/29 06:10,   -0.0,    0.0,    2.0,    3.0,    3.0,    3.2,    2.9,    3.0,    4.0,    4.5,    4.5,    4.6,    4.4,    4.5,    4.3,    5.2,    5.5,    6.0,    5.7,    6.3,    6.7,    6.9,    7.4,    8.2,    9.1,    8.6,    7.9,    7.7,  999.0,  999.0,  999.0,    6.9,    7.0,    6.3,    5.8,    4.7,    5.2,  999.0,  999.0,  999.0,  999.0,  999.0,  999.0,  999.0,  999.0,  999.0,  999.0,  999.0,  999.0,  999.0,  999.0,  999.0,  999.0,  999.0,  999.0,  999.0,  999.0,  999.0,  999.0,  999.0,  999.0,  999.0,  999.0,  999.0,  999.0,  999.0,  999.0,  999.0,  999.0,  999.0,  999.0,  999.0,  999.0,  999.0,  999.0,  999.0,  999.0,  999.0,  999.0,  999.0,  999.0,  999.0,  999.0,  999.0,  999.0,  999.0,  999.0,  999.0,  999.0,   -1.2,   -1.1,   -1.3,   -1.3,   -1.3,   -1.4,   -1.5,   -1.8,  999.0,  999.0
2007/10/29 06:20,   -0.1,   -0.0,    2.0,    3.0,    3.2,    2.7,    2.8,    2.9,    3.7,    4.4,    4.7,  999.0,  999.0,  999.0,    4.9,    5.6,    5.8,    6.3,    5.4,    6.1,    6.5,    6.4,    6.8,    7.5,    8.6,    8.2,    7.7,  999.0,  999.0,  999.0,  999.0,  999.0,    6.7,    5.8,    5.7,    4.9,  999.0,  999.0,  999.0,  999.0,  999.0,  999.0,  999.0,  999.0,  999.0,  999.0,  999.0,  999.0,  999.0,  999.0,  999.0,  999.0,  999.0,  999.0,  999.0,  999.0,  999.0,  999.0,  999.0,  999.0,  999.0,  999.0,  999.0,  999.0,  999.0,  999.0,  999.0,  999.0,  999.0,  999.0,  999.0,  999.0,  999.0,  999.0,  999.0,  999.0,  999.0,  999.0,  999.0,  999.0,  999.0,  999.0,  999.0,  999.0,  999.0,  999.0,   -2.8,   -2.3,   -2.0,   -1.8,   -1.6,   -1.7,   -1.5,   -1.6,   -1.6,   -1.9,   -1.9,  999.0,  999.0
2007/10/29 06:30,  999.0,    0.1,    1.6,    2.8,    3.3,    3.0,    3.0,    2.8,    3.8,    4.3,  999.0,    4.3,    4.3,  999.0,    5.1,    5.8,    6.4,    6.3,    5.8,    5.7,    5.8,    6.5,    6.7,    7.7,    8.7,  999.0,  999.0,  999.0,  999.0,  999.0,  999.0,  999.0,    6.3,    5.7,    5.8,  999.0,    5.2,  999.0,  999.0,  999.0,  999.0,  999.0,  999.0,  999.0,  999.0,  999.0,  999.0,  999.0,  999.0,  999.0,  999.0,  999.0,  999.0,  999.0,  999.0,  999.0,  999.0,  999.0,  999.0,  999.0,  999.0,  999.0,  999.0,  999.0,  999.0,  999.0,  999.0,  999.0,  999.0,  999.0,  999.0,  999.0,  999.0,  999.0,  999.0,  999.0,  999.0,  999.0,  999.0,  999.0,  999.0,  999.0,  999.0,  999.0,  999.0,   -1.5,   -2.0,   -2.2,   -1.9,   -1.4,   -1.5,   -1.2,  999.0,  999.0,  999.0,  999.0,  999.0,  999.0,  999.0
2007/10/29 06:40,   -0.2,   -0.3,    0.9,    2.8,    3.1,    3.1,    2.7,    2.8,    3.8,    4.2,    4.5,  999.0,    4.1,  999.0,    4.1,    5.3,    6.1,    6.0,    6.1,    6.0,    5.9,    6.1,    6.5,    7.3,    7.6,    7.5,  999.0,  999.0,  999.0,  999.0,  999.0,  999.0,  999.0,    6.1,    5.7,  999.0,  999.0,  999.0,  999.0,  999.0,  999.0,  999.0,  999.0,  999.0,  999.0,  999.0,  999.0,  999.0,  999.0,  999.0,  999.0,  999.0,  999.0,  999.0,  999.0,  999.0,  999.0,  999.0,  999.0,  999.0,  999.0,  999.0,  999.0,  999.0,  999.0,  999.0,  999.0,  999.0,  999.0,  999.0,  999.0,  999.0,  999.0,  999.0,  999.0,  999.0,  999.0,  999.0,  999.0,  999.0,  999.0,  999.0,  999.0,  999.0,  999.0,  999.0,  999.0,  999.0,  999.0,  999.0,  999.0,  999.0,  999.0,  999.0,  999.0,  999.0,  999.0,  999.0,  999.0
2007/10/29 06:50,  999.0,   -0.3,    1.0,  999.0,    3.1,    2.9,    2.6,    2.5,    3.0,    3.8,  999.0,  999.0,  999.0,  999.0,    4.5,    5.2,    5.8,    6.3,    6.4,    6.2,    6.6,    6.0,    6.7,    7.0,    7.8,    6.8,    7.2,    8.4,  999.0,  999.0,  999.0,  999.0,  999.0,    6.5,  999.0,  999.0,  999.0,  999.0,  999.0,  999.0,  999.0,  999.0,  999.0,  999.0,  999.0,  999.0,  999.0,  999.0,  999.0,  999.0,  999.0,  999.0,  999.0,  999.0,  999.0,  999.0,  999.0,  999.0,  999.0,  999.0,  999.0,  999.0,  999.0,  999.0,  999.0,  999.0,  999.0,  999.0,  999.0,  999.0,  999.0,  999.0,  999.0,  999.0,  999.0,  999.0,  999.0,  999.0,  999.0,  999.0,  999.0,  999.0,  999.0,  999.0,  999.0,  999.0,  999.0,  999.0,  999.0,  999.0,  999.0,  999.0,  999.0,  999.0,  999.0,  999.0,  999.0,  999.0,  999.0
2007/10/29 07:00,  999.0,    0.1,    0.3,    2.1,    2.6,    2.5,    2.2,    2.3,    3.1,    3.7,    3.9,  999.0,    4.1,    4.2,    5.1,    5.9,    6.1,    6.7,    7.2,    6.9,    7.1,    6.3,    5.9,    6.3,    6.7,    6.7,    6.8,    7.8,  999.0,  999.0,  999.0,  999.0,    6.0,    5.9,  999.0,    4.7,  999.0,  999.0,  999.0,  999.0,  999.0,  999.0,  999.0,  999.0,  999.0,  999.0,  999.0,  999.0,  999.0,  999.0,  999.0,  999.0,  999.0,  999.0,  999.0,  999.0,  999.0,  999.0,  999.0,  999.0,  999.0,  999.0,  999.0,  999.0,  999.0,  999.0,  999.0,  999.0,  999.0,  999.0,  999.0,  999.0,  999.0,  999.0,  999.0,  999.0,  999.0,  999.0,  999.0,  999.0,  999.0,  999.0,  999.0,  999.0,  999.0,  999.0,  999.0,  999.0,  999.0,  999.0,  999.0,  999.0,  999.0,  999.0,  999.0,  999.0,  999.0,  999.0,  999.0
2007/10/29 07:10,  999.0,   -0.1,    0.7,    1.4,  999.0,    2.3,    2.2,    2.7,    3.2,    3.9,  999.0,  999.0,    4.6,    4.4,    5.4,    5.8,    6.0,    6.4,    6.9,    6.6,    6.5,    5.6,    5.2,    6.1,    6.7,    6.9,    6.9,  999.0,  999.0,  999.0,  999.0,  999.0,  999.0,  999.0,    4.2,    4.4,  999.0,  999.0,  999.0,  999.0,  999.0,  999.0,  999.0,  999.0,  999.0,  999.0,  999.0,  999.0,  999.0,  999.0,  999.0,  999.0,  999.0,  999.0,  999.0,  999.0,  999.0,  999.0,  999.0,  999.0,  999.0,  999.0,  999.0,  999.0,  999.0,  999.0,  999.0,  999.0,  999.0,  999.0,  999.0,  999.0,  999.0,  999.0,  999.0,  999.0,  999.0,  999.0,  999.0,  999.0,  999.0,  999.0,  999.0,  999.0,  999.0,  999.0,  999.0,  999.0,  999.0,  999.0,  999.0,  999.0,  999.0,  999.0,  999.0,  999.0,  999.0,  999.0,  999.0
2007/10/29 07:20,   -0.2,    0.1,    1.0,    2.0,    3.0,    3.2,  999.0,    3.3,    3.6,    4.4,    4.6,  999.0,    4.7,    4.6,    5.0,    5.8,    6.1,    6.2,    6.6,    7.2,    6.7,    5.8,    6.0,    6.2,    6.4,    6.7,    6.5,    6.5,  999.0,  999.0,  999.0,  999.0,  999.0,  999.0,    4.2,    4.1,  999.0,  999.0,  999.0,  999.0,  999.0,  999.0,  999.0,  999.0,  999.0,  999.0,  999.0,  999.0,  999.0,  999.0,  999.0,  999.0,  999.0,  999.0,  999.0,  999.0,  999.0,  999.0,  999.0,  999.0,  999.0,  999.0,  999.0,  999.0,  999.0,  999.0,  999.0,  999.0,  999.0,  999.0,  999.0,  999.0,  999.0,  999.0,  999.0,  999.0,  999.0,  999.0,  999.0,  999.0,  999.0,  999.0,  999.0,  999.0,  999.0,  999.0,  999.0,  999.0,  999.0,  999.0,  999.0,  999.0,  999.0,  999.0,  999.0,  999.0,  999.0,  999.0,  999.0
2007/10/29 07:30,  999.0,  999.0,  999.0,    2.2,    3.1,  999.0,    2.6,  999.0,    3.7,    4.4,  999.0,  999.0,  999.0,    4.3,    5.2,    5.5,    5.6,    5.7,    6.7,    7.5,    6.1,    6.0,    6.3,    6.5,    6.4,    5.9,    6.1,    6.3,  999.0,  999.0,    7.2,    7.0,  999.0,  999.0,  999.0,  999.0,  999.0,  999.0,  999.0,    4.2,    4.8,  999.0,  999.0,  999.0,  999.0,  999.0,  999.0,  999.0,  999.0,  999.0,  999.0,  999.0,  999.0,  999.0,  999.0,  999.0,  999.0,  999.0,  999.0,  999.0,  999.0,  999.0,  999.0,  999.0,  999.0,  999.0,  999.0,  999.0,  999.0,  999.0,  999.0,  999.0,  999.0,  999.0,  999.0,  999.0,  999.0,  999.0,  999.0,  999.0,  999.0,  999.0,  999.0,  999.0,  999.0,  999.0,  999.0,  999.0,  999.0,  999.0,  999.0,  999.0,  999.0,  999.0,  999.0,  999.0,  999.0,  999.0,  999.0
2007/10/29 07:40,   -0.2,    0.2,    0.9,    2.6,    2.8,    2.9,    2.8,    2.9,    3.6,    4.2,  999.0,    4.8,    4.7,    4.5,    4.9,    5.4,  999.0,    6.0,    6.8,    7.2,    6.6,  999.0,    5.9,    6.5,    6.8,    5.9,    6.3,    6.7,  999.0,  999.0,  999.0,  999.0,  999.0,  999.0,  999.0,  999.0,  999.0,  999.0,  999.0,  999.0,  999.0,  999.0,  999.0,  999.0,  999.0,  999.0,  999.0,  999.0,  999.0,    3.7,  999.0,  999.0,  999.0,  999.0,  999.0,  999.0,  999.0,  999.0,  999.0,  999.0,  999.0,  999.0,  999.0,  999.0,  999.0,  999.0,  999.0,  999.0,  999.0,  999.0,  999.0,  999.0,  999.0,  999.0,  999.0,  999.0,  999.0,  999.0,  999.0,  999.0,  999.0,  999.0,  999.0,  999.0,  999.0,  999.0,  999.0,  999.0,  999.0,  999.0,  999.0,  999.0,  999.0,  999.0,  999.0,  999.0,  999.0,  999.0,  999.0
2007/10/29 07:50,   -0.6,   -0.4,    0.6,    1.8,    2.2,    2.3,    2.2,    2.5,    2.7,    3.6,  999.0,  999.0,    3.9,    4.0,    4.7,    4.8,    5.1,    5.6,    6.7,    5.7,  999.0,    6.4,    6.4,    6.5,    7.1,  999.0,    6.3,  999.0,  999.0,  999.0,  999.0,  999.0,  999.0,  999.0,  999.0,  999.0,  999.0,  999.0,  999.0,  999.0,  999.0,  999.0,  999.0,  999.0,  999.0,  999.0,  999.0,  999.0,  999.0,  999.0,  999.0,  999.0,  999.0,  999.0,  999.0,  999.0,  999.0,  999.0,  999.0,  999.0,  999.0,  999.0,  999.0,  999.0,  999.0,  999.0,  999.0,  999.0,  999.0,  999.0,  999.0,  999.0,  999.0,  999.0,  999.0,  999.0,  999.0,  999.0,  999.0,  999.0,  999.0,  999.0,  999.0,  999.0,  999.0,  999.0,  999.0,  999.0,  999.0,  999.0,  999.0,  999.0,  999.0,  999.0,  999.0,  999.0,  999.0,  999.0,  999.0
2007/10/29 08:00,  999.0,   -0.2,    0.3,    1.0,    1.7,    1.8,    1.8,    2.2,  999.0,    3.4,    3.5,    3.4,    3.6,    3.9,    4.5,    4.8,    5.0,    5.9,    6.7,    5.9,    6.1,    6.5,    7.3,    6.8,    6.8,  999.0,  999.0,  999.0,  999.0,  999.0,  999.0,  999.0,  999.0,  999.0,  999.0,  999.0,  999.0,  999.0,  999.0,  999.0,  999.0,  999.0,  999.0,  999.0,  999.0,  999.0,  999.0,  999.0,  999.0,    2.9,    3.4,    2.5,    2.9,  999.0,  999.0,  999.0,  999.0,  999.0,  999.0,  999.0,  999.0,  999.0,  999.0,  999.0,  999.0,  999.0,  999.0,  999.0,  999.0,  999.0,  999.0,  999.0,  999.0,  999.0,  999.0,  999.0,  999.0,  999.0,  999.0,  999.0,  999.0,  999.0,  999.0,  999.0,  999.0,  999.0,  999.0,  999.0,  999.0,  999.0,  999.0,  999.0,  999.0,  999.0,  999.0,  999.0,  999.0,  999.0,  999.0
2007/10/29 08:10,  999.0,   -0.2,    0.2,    0.7,    1.5,    1.8,    1.8,    2.2,    2.4,    3.0,    3.5,    3.4,    3.2,    3.5,    4.2,    5.0,    4.6,    5.2,    6.5,    5.8,    6.1,    6.8,    7.1,    7.0,    7.6,  999.0,  999.0,  999.0,  999.0,  999.0,  999.0,  999.0,  999.0,  999.0,  999.0,  999.0,  999.0,  999.0,  999.0,  999.0,  999.0,  999.0,  999.0,  999.0,  999.0,  999.0,  999.0,  999.0,  999.0,  999.0,  999.0,    3.0,    3.0,  999.0,  999.0,  999.0,  999.0,  999.0,  999.0,  999.0,  999.0,  999.0,  999.0,  999.0,  999.0,  999.0,  999.0,  999.0,  999.0,  999.0,  999.0,  999.0,  999.0,  999.0,  999.0,  999.0,  999.0,  999.0,  999.0,  999.0,  999.0,  999.0,  999.0,  999.0,  999.0,  999.0,  999.0,  999.0,  999.0,  999.0,  999.0,  999.0,  999.0,  999.0,  999.0,  999.0,  999.0,  999.0,  999.0
2007/10/29 08:20,   -0.8,   -0.5,    0.2,    0.9,    1.2,    1.5,    1.9,    2.0,    2.4,    3.1,    3.0,    3.3,    3.0,    3.6,    4.5,    4.6,    4.9,    5.2,    6.2,    7.0,    6.5,    6.7,    6.8,    7.2,    7.7,  999.0,  999.0,  999.0,  999.0,  999.0,  999.0,  999.0,  999.0,  999.0,  999.0,  999.0,  999.0,  999.0,  999.0,  999.0,  999.0,  999.0,  999.0,  999.0,  999.0,  999.0,  999.0,  999.0,  999.0,  999.0,    2.7,    2.6,  999.0,  999.0,  999.0,  999.0,  999.0,  999.0,  999.0,  999.0,  999.0,  999.0,  999.0,  999.0,  999.0,  999.0,  999.0,  999.0,  999.0,  999.0,  999.0,  999.0,  999.0,  999.0,  999.0,  999.0,  999.0,  999.0,  999.0,  999.0,  999.0,  999.0,  999.0,  999.0,  999.0,  999.0,  999.0,  999.0,  999.0,  999.0,  999.0,  999.0,  999.0,  999.0,  999.0,  999.0,  999.0,  999.0,  999.0
2007/10/29 08:30,   -0.2,    0.1,    0.4,    0.9,    1.6,    1.8,    2.1,  999.0,    2.7,    3.1,    3.4,    3.6,    3.1,    3.8,    4.6,    4.6,    4.5,    5.0,    6.4,    7.0,    6.0,    6.2,    6.6,    7.3,    7.7,  999.0,  999.0,  999.0,  999.0,  999.0,    6.7,  999.0,  999.0,  999.0,  999.0,    4.2,    4.3,  999.0,  999.0,  999.0,  999.0,  999.0,  999.0,  999.0,  999.0,  999.0,  999.0,  999.0,  999.0,    2.1,  999.0,    2.7,    2.2,  999.0,  999.0,  999.0,  999.0,  999.0,  999.0,  999.0,  999.0,  999.0,  999.0,  999.0,  999.0,  999.0,  999.0,  999.0,  999.0,  999.0,  999.0,  999.0,  999.0,  999.0,  999.0,  999.0,  999.0,  999.0,  999.0,  999.0,  999.0,  999.0,  999.0,  999.0,  999.0,  999.0,  999.0,  999.0,  999.0,  999.0,  999.0,  999.0,  999.0,  999.0,  999.0,  999.0,  999.0,  999.0,  999.0
2007/10/29 08:40,   -0.2,    0.0,    1.0,    1.0,    1.5,    2.0,    2.2,  999.0,    2.9,    3.2,    3.4,    3.8,    3.3,    4.1,    4.6,    4.4,    4.6,    5.3,    5.7,    6.8,    6.3,    6.3,    6.9,    7.5,    7.6,  999.0,    7.0,  999.0,  999.0,    6.2,    6.6,  999.0,  999.0,  999.0,  999.0,    4.1,  999.0,  999.0,  999.0,  999.0,  999.0,  999.0,  999.0,  999.0,  999.0,  999.0,  999.0,  999.0,  999.0,    2.3,  999.0,    2.7,    2.8,  999.0,  999.0,  999.0,  999.0,  999.0,  999.0,  999.0,  999.0,  999.0,  999.0,  999.0,  999.0,  999.0,  999.0,  999.0,  999.0,  999.0,  999.0,  999.0,  999.0,  999.0,  999.0,  999.0,  999.0,  999.0,  999.0,  999.0,  999.0,  999.0,  999.0,  999.0,  999.0,  999.0,  999.0,  999.0,  999.0,  999.0,  999.0,  999.0,  999.0,  999.0,  999.0,  999.0,  999.0,  999.0,  999.0
2007/10/29 08:50,   -0.2,   -0.6,    0.4,    0.8,    1.2,    1.7,    2.0,    2.1,    2.7,    2.9,    3.2,    3.2,    2.9,    3.1,    3.8,    4.0,    3.9,    4.6,    5.1,    6.0,    5.9,    5.7,    6.0,    6.6,    7.1,    7.2,    7.5,    7.9,    8.2,    6.8,    5.8,    6.1,  999.0,  999.0,  999.0,  999.0,    3.8,  999.0,  999.0,  999.0,  999.0,  999.0,  999.0,  999.0,  999.0,  999.0,  999.0,  999.0,  999.0,  999.0,  999.0,    2.6,    2.9,    2.6,  999.0,  999.0,  999.0,  999.0,  999.0,  999.0,  999.0,  999.0,  999.0,  999.0,  999.0,  999.0,  999.0,  999.0,  999.0,  999.0,  999.0,  999.0,  999.0,  999.0,  999.0,  999.0,  999.0,  999.0,  999.0,  999.0,  999.0,  999.0,  999.0,  999.0,  999.0,  999.0,  999.0,  999.0,  999.0,  999.0,  999.0,  999.0,  999.0,  999.0,  999.0,  999.0,  999.0,  999.0,  999.0
2007/10/29 09:00,    0.0,   -0.1,    0.0,    1.0,    1.3,    1.8,    1.8,    2.0,    2.1,    2.4,    2.5,    2.8,    3.0,    3.3,    4.0,    4.1,    4.6,    5.3,    5.4,    5.5,    5.6,    5.4,    5.5,    6.2,    6.5,    6.8,    6.8,    6.5,    6.5,    6.5,  999.0,    6.3,    5.1,  999.0,  999.0,  999.0,    3.8,  999.0,  999.0,  999.0,  999.0,  999.0,  999.0,  999.0,  999.0,  999.0,  999.0,  999.0,  999.0,  999.0,  999.0,  999.0,    2.6,  999.0,  999.0,  999.0,  999.0,  999.0,  999.0,  999.0,  999.0,  999.0,  999.0,  999.0,  999.0,  999.0,  999.0,  999.0,  999.0,  999.0,  999.0,  999.0,  999.0,  999.0,  999.0,  999.0,  999.0,  999.0,  999.0,  999.0,  999.0,  999.0,  999.0,  999.0,  999.0,  999.0,  999.0,  999.0,  999.0,  999.0,  999.0,  999.0,  999.0,  999.0,  999.0,  999.0,  999.0,  999.0,  999.0
2007/10/29 09:10,   -0.1,   -0.8,   -0.0,    0.6,    0.7,    0.9,    0.8,    1.2,    1.5,    1.7,    2.2,    2.5,    3.3,    3.9,    3.9,    4.4,    4.8,    5.4,    5.7,    6.3,    6.6,    6.2,    6.1,    6.7,    7.4,    7.7,    7.6,    7.4,    7.1,    6.2,    6.1,    5.8,    5.2,    4.6,    4.7,  999.0,    3.5,  999.0,  999.0,  999.0,  999.0,  999.0,  999.0,  999.0,  999.0,  999.0,  999.0,  999.0,  999.0,  999.0,    1.7,    2.0,    1.8,  999.0,  999.0,  999.0,  999.0,  999.0,  999.0,  999.0,  999.0,  999.0,  999.0,  999.0,  999.0,  999.0,  999.0,  999.0,  999.0,  999.0,  999.0,  999.0,  999.0,  999.0,  999.0,  999.0,  999.0,  999.0,  999.0,  999.0,  999.0,  999.0,  999.0,  999.0,  999.0,  999.0,  999.0,  999.0,  999.0,  999.0,  999.0,  999.0,  999.0,  999.0,  999.0,  999.0,  999.0,  999.0,  999.0
2007/10/29 09:20,   -0.1,   -0.0,   -0.1,   -0.1,   -0.0,    0.7,    1.2,    1.0,    1.4,    1.4,    2.6,    2.4,    2.2,    3.1,    3.5,    3.7,    4.0,    4.6,    5.4,    5.7,    5.3,    5.3,    5.7,    6.3,    6.7,    8.3,    8.5,    7.7,    7.8,    7.5,    7.0,    6.6,    4.9,    4.5,    4.2,    4.0,  999.0,  999.0,  999.0,  999.0,  999.0,  999.0,  999.0,  999.0,  999.0,  999.0,  999.0,  999.0,  999.0,  999.0,  999.0,  999.0,  999.0,  999.0,  999.0,  999.0,  999.0,  999.0,  999.0,  999.0,  999.0,  999.0,  999.0,  999.0,  999.0,  999.0,  999.0,  999.0,  999.0,  999.0,  999.0,  999.0,  999.0,  999.0,  999.0,  999.0,  999.0,  999.0,  999.0,  999.0,  999.0,  999.0,  999.0,  999.0,  999.0,  999.0,  999.0,  999.0,  999.0,  999.0,  999.0,  999.0,  999.0,  999.0,  999.0,  999.0,  999.0,  999.0,  999.0
2007/10/29 09:30,   -0.7,   -1.5,   -1.3,    0.3,   -0.1,   -0.2,    0.4,    0.3,   -1.3,   -0.1,    0.4,   -0.8,   -1.3,    1.6,   -0.3,   -1.1,   -0.1,    2.2,    1.8,    0.5,    0.7,   -0.1,   -0.8,   -1.7,   -0.6,   -0.7,   -3.9,    2.0,  999.0,    4.1,  999.0,   -1.2,    0.4,    4.2,   -0.6,    1.0,    0.9,  999.0,    3.1,    2.6,    4.4,    4.0,    4.1,    4.8,    4.4,    0.8,    3.7,    1.2,    0.0,    1.9,    1.8,    0.2,    0.9,   -0.2,    1.5,    2.3,    0.7,   -0.5,   -0.7,  999.0,    2.3,    2.3,    1.8,    3.3,    1.9,    0.8,  999.0,    0.7,   -0.4,  999.0,  999.0,    0.7,    0.7,  999.0,  999.0,  999.0,  999.0,  999.0,  999.0,  999.0,  999.0,  999.0,  999.0,  999.0,  999.0,  999.0,  999.0,  999.0,  999.0,  999.0,  999.0,  999.0,  999.0,  999.0,  999.0,  999.0,  999.0,  999.0,  999.0
2007/10/29 09:40,  999.0,   -1.6,   -1.7,  -10.8,  999.0,  999.0,  999.0,  999.0,   -5.9,  999.0,    2.3,    2.8,  999.0,  999.0,  999.0,   -9.3,  999.0,  999.0,  999.0,  999.0,   -9.2,   -6.4,   -7.3,   -6.9,   -8.9,   -6.9,  -10.8,  999.0,  999.0,  999.0,  999.0,  999.0,   -2.7,  999.0,  999.0,   -6.3,   -2.4,    1.2,    2.4,   -0.8,  999.0,  999.0,  999.0,  999.0,  999.0,  999.0,    1.2,  999.0,  999.0,    4.1,   -3.9,    5.2,   -1.6,    3.4,  999.0,    2.0,   -0.9,   -3.0,  999.0,  999.0,    1.3,    1.0,    0.8,    0.8,    0.2,    1.5,    0.3,   -0.3,   -0.1,    0.4,    0.6,    1.4,    0.8,    4.3,    1.3,    5.0,  999.0,    3.3,  999.0,  999.0,    2.7,  999.0,    1.9,    1.2,  999.0,  999.0,  999.0,  999.0,  999.0,  999.0,  999.0,  999.0,  999.0,  999.0,  999.0,  999.0,  999.0,  999.0,  999.0
2007/10/29 09:50,  999.0,   -8.4,   -3.1,  999.0,   -0.9,   -2.6,    0.0,   -9.9,    2.5,    2.3,    2.5,   -8.0,   -9.4,   -9.3,   -5.1,  -18.5,   -1.9,   -3.6,   -3.6,   -6.2,   -3.5,    1.2,    1.3,    1.7,    1.4,   -0.9,  999.0,  999.0,    0.6,  -19.2,  -18.0,  -28.9,  -14.9,  -29.3,    2.5,   -6.9,   -5.4,   -1.5,    2.0,    2.1,   -0.1,    1.6,   -0.9,  999.0,    2.4,   -0.0,    0.1,    2.2,    2.1,    1.1,   -1.0,    0.1,  999.0,  999.0,  999.0,  999.0,  999.0,  999.0,  999.0,    4.4,    4.2,    4.8,    4.2,    4.5,    4.9,    5.2,    4.0,    3.0,    1.0,    5.2,    3.1,  999.0,  999.0,    3.4,    5.2,    5.0,    5.4,    5.6,    6.6,    8.8,  999.0,  999.0,    8.1,    6.6,  999.0,  999.0,  999.0,  999.0,  999.0,  999.0,  999.0,  999.0,  999.0,  999.0,    6.3,    3.2,    5.2,  999.0,  999.0
2007/10/29 10:00,  999.0,  999.0,   -3.0,   -0.7,    3.3,    4.8,    5.0,    5.4,    6.3,    3.2,    3.9,    2.9,    7.2,    6.9,    5.8,   -2.6,   -5.5,   -5.1,  999.0,  999.0,    6.0,  999.0,    0.5,   -0.4,   -0.4,   -6.6,   -9.2,   -7.8,   -7.6,   -8.2,   -9.9,  -10.8,  -10.6,   -4.2,   -7.3,   -5.7,   -1.3,   -3.9,  999.0,  999.0,  999.0,   -7.3,  999.0,   -7.9,   -7.2,   -7.0,   -5.3,   -5.9,   -7.3,   -6.5,  999.0,  999.0,  999.0,  999.0,  999.0,  999.0,  999.0,  999.0,  999.0,  999.0,   -1.8,   -0.0,   -2.2,    0.6,   -2.1,    1.3,    1.6,    2.3,    1.8,    3.2,    3.4,    2.4,    3.0,  999.0,    2.7,    4.6,    4.7,    4.7,    7.1,    7.0,    6.0,    6.0,    4.6,    6.0,  999.0,    9.0,    9.1,  999.0,  999.0,   14.1,   10.9,   11.4,    9.8,   10.4,   10.6,    8.3,   12.4,  999.0,  999.0
2007/10/29 10:10,   -0.7,   -1.0,   -0.0,    1.0,    1.7,    2.0,    3.0,    4.1,    4.8,    5.3,    6.0,    6.2,  999.0,    6.8,    6.5,    5.4,    5.7,    5.9,    5.5,    6.8,    7.6,    7.4,    4.6,    2.2,    7.6,    1.8,    0.1,   -3.1,   -0.3,   -7.1,   -4.5,   -2.8,   -4.0,   -4.3,   -5.9,   -6.4,   -6.9,   -8.2,   -8.2,   -7.5,   -9.8,   -7.7,   -8.1,  -10.2,  -12.0,   -9.3,   -7.9,   -6.3,   -5.3,   -6.5,   -5.5,   -7.5,   -5.6,   -7.4,   -7.1,   -5.2,  999.0,   -7.5,   -7.8,   -8.3,   -7.3,   -7.9,   -2.3,  999.0,  999.0,   -1.4,   -0.2,    0.0,  999.0,   -5.1,   -7.6,   -6.5,   -6.7,  999.0,   -7.0,   -5.9,   -2.7,    2.2,    3.4,    2.9,    2.0,  999.0,    6.1,    6.0,    5.5,    6.1,    7.3,    8.4,    8.0,    9.1,    9.0,    8.7,   11.0,   10.1,   11.6,   12.3,   14.2,   13.0,  999.0
2007/10/29 10:20,   -0.3,   -0.3,    0.5,    1.6,    1.7,    2.4,    3.0,    4.0,    4.7,    5.3,    6.1,  999.0,    6.5,    5.5,    5.3,    5.1,    5.3,    5.7,    6.1,    7.0,    7.4,    8.2,    8.7,    8.3,    7.7,    7.7,    7.1,    6.8,    6.7,    7.1,  999.0,    7.3,    7.2,    7.0,    6.2,    6.4,    5.9,    6.0,    5.9,    6.2,    5.5,  999.0,  999.0,  999.0,  999.0,  999.0,  999.0,   -3.7,   -3.3,   -3.8,  999.0,  999.0,   -1.6,   -1.8,   -2.4,   -3.9,   -3.2,   -4.6,   -5.3,   -4.7,   -3.9,   -3.8,   -4.4,   -5.1,   -5.8,   -6.0,   -6.1,   -6.6,  999.0,   -8.1,  -17.1,  -17.1,  -17.5,  999.0,  999.0,  999.0,  999.0,  999.0,  999.0,  999.0,  999.0,  999.0,    3.6,    5.6,    7.5,    7.0,    9.1,    7.7,    7.6,   11.3,   11.8,  999.0,   10.4,  999.0,    7.4,    9.1,  999.0,    6.7,  999.0
2007/10/29 10:30,  999.0,    0.2,   -3.4,   -2.5,    2.0,    2.2,    2.3,   -4.7,   -3.8,   -3.1,  -11.5,   -4.9,   -4.6,   -4.8,   -4.4,   -4.2,   -6.9,   -6.7,   -6.0,   -5.4,   -1.8,  999.0,  999.0,  999.0,  999.0,  999.0,  999.0,  999.0,  999.0,  999.0,  999.0,  999.0,  999.0,  999.0,  999.0,  999.0,  999.0,  999.0,  999.0,  999.0,  999.0,  999.0,  999.0,  999.0,  999.0,   -3.1,    5.9,    5.0,  999.0,  999.0,    5.1,  999.0,   -9.1,   -9.2,  -10.5,   -3.5,   -3.9,   -4.3,   -4.4,    2.2,   -4.6,   -4.4,    2.6,    3.2,    3.7,    3.5,    3.4,    5.1,    5.3,   -3.3,   -2.6,   -2.6,    4.4,    3.4,    3.0,    2.4,    2.2,    2.1,    1.4,    1.1,    2.0,  999.0,    1.9,    0.4,    1.3,    0.9,    1.3,  999.0,  999.0,  999.0,  999.0,  999.0,  999.0,  999.0,    3.0,  999.0,  999.0,  999.0,  999.0
2007/10/29 10:40,  999.0,    1.8,    2.3,    2.6,    3.2,  -13.9,   -9.4,   -9.2,   -6.4,   -2.5,   -2.6,  -12.6,   -4.4,   -3.6,   -3.3,   -6.8,   -6.8,   -3.1,   -2.4,   -4.9,   -9.0,   -8.2,   -8.3,   -3.5,   -9.9,  -10.1,  -10.1,   -9.7,   -4.9,   -4.2,   -3.9,   -6.2,  -10.5,  -11.0,   -7.6,  -11.4,   -8.1,   -4.6,   -5.6,  -11.3,  -17.2,   -8.2,    5.2,    5.4,    5.5,    5.4,    4.2,    3.3,    3.5,    2.8,    1.9,    2.6,    2.7,    2.8,    2.5,    1.7,    1.5,    1.7,    1.0,    0.2,    0.1,    0.0,   -0.1,    0.2,    0.6,    1.1,    0.6,    0.3,    1.2,    2.1,    3.4,    3.2,    2.8,    1.7,    1.3,    0.5,    0.1,   -0.1,  999.0,   -1.8,   -3.5,   -2.8,   -2.8,   -2.7,   -2.2,   -3.3,   -4.4,   -5.0,   -3.6,  999.0,   -4.2,   -5.0,  999.0,  999.0,  999.0,  999.0,  999.0,  999.0,  999.0
2007/10/29 10:50,    0.2,    1.2,    1.7,    2.3,    3.1,    3.0,    3.6,    4.5,    4.6,    4.7,    3.2,    2.1,    2.3,    2.4,    2.6,    2.3,    1.6,    1.8,    2.5,    2.9,    3.6,    4.2,    4.4,    4.4,  999.0,  999.0,  999.0,    7.5,    7.4,    6.7,    6.0,    5.4,    5.6,    5.8,    5.6,    5.4,    5.5,    5.6,    5.7,    6.5,    7.0,    6.9,    6.1,    5.5,    5.9,    6.6,    6.2,    5.8,    5.7,    4.9,    4.4,    4.4,    4.1,    3.7,    3.5,    3.3,    3.3,    3.1,    2.3,    1.8,    1.4,    1.4,    1.7,    1.8,    1.6,    1.6,    1.8,    2.0,    1.7,    2.4,    2.8,    2.7,    3.0,    2.4,    2.5,    1.9,    1.3,    1.7,    1.0,    0.8,   -0.1,    0.2,   -0.2,   -0.9,   -1.1,   -1.9,   -2.1,   -2.8,   -3.9,  999.0,   -3.1,  999.0,   -5.3,   -6.5,   -6.4,   -5.9,   -5.4,  999.0,  999.0
2007/10/29 11:00,    0.6,   -1.0,    2.1,    2.8,  999.0,    4.6,    4.8,    5.4,    5.3,    3.6,    2.4,    3.9,    0.3,    1.7,    1.2,   -0.6,    1.9,    3.0,    2.7,  999.0,  999.0,   -0.3,    1.7,  999.0,  999.0,  999.0,  999.0,    6.6,  999.0,    5.8,    5.2,    4.1,    5.3,    5.8,    4.1,    4.0,    4.4,    4.2,    4.4,    4.9,    5.8,    6.3,    6.0,    5.1,    4.9,    5.0,    5.4,    5.3,    6.1,    5.1,    4.8,    4.4,    4.1,    4.5,    3.4,    3.6,    3.2,    2.9,    2.4,    1.9,    2.1,    1.4,    1.9,    1.5,    1.9,    2.2,    2.4,    3.0,    3.1,    3.2,    3.1,    3.2,    2.4,    2.6,    1.8,    0.7,    0.2,   -0.5,    0.4,    0.7,    0.7,    0.9,    0.8,    0.5,   -0.2,   -0.8,   -1.6,   -2.7,   -3.6,   -3.7,   -4.6,   -3.8,   -4.0,   -2.9,   -2.8,   -2.5,   -1.2,   -0.3,    1.7
2007/10/29 11:10,    0.2,    0.4,    1.7,  999.0,  999.0,    4.5,    4.4,    4.8,    5.1,    4.1,    3.8,    4.0,    4.5,    4.7,    4.8,    5.0,    5.0,    5.3,    5.7,  999.0,  999.0,  999.0,  999.0,  999.0,  999.0,  999.0,  999.0,  999.0,  999.0,  999.0,  999.0,  999.0,    4.6,    4.8,    4.8,    4.7,    5.0,    5.1,    5.2,    5.5,    6.0,    6.1,    6.0,    5.1,    4.9,    5.2,    5.2,    5.4,    5.0,    4.9,    5.0,    4.8,    4.5,    4.2,    3.3,    2.7,    2.7,    2.3,    2.0,    1.5,    1.2,    1.4,    1.3,    0.9,    1.0,    1.4,    2.2,    2.9,    3.3,    3.7,    3.7,    3.5,    3.6,    3.0,    2.3,    1.7,    1.0,    0.5,    0.4,    0.6,    1.0,    0.4,   -0.2,   -1.0,   -1.6,   -1.9,   -2.5,   -2.8,   -3.3,   -4.0,   -4.3,   -4.8,   -4.9,   -4.3,   -2.6,   -1.6,   -1.5,   -1.5,  999.0
2007/10/29 11:20,   -0.0,    0.3,    2.0,    3.2,    3.8,    4.3,    4.9,    4.7,    4.4,    3.6,    3.5,    4.4,    4.4,    5.0,    5.2,    5.3,    5.1,    5.4,    5.6,    6.3,  999.0,    7.4,  999.0,    0.9,    3.2,    4.1,    6.2,    3.0,    4.0,   -1.2,  999.0,  999.0,  999.0,  999.0,  999.0,  999.0,  999.0,  999.0,  999.0,    4.5,    3.2,    3.9,    3.5,    4.9,    4.4,    3.0,    3.4,    5.8,    5.6,  999.0,    5.6,  999.0,  999.0,  999.0,  999.0,    2.4,    2.5,    1.9,    1.8,    1.3,    1.2,    1.6,    1.8,    2.0,    2.1,    2.3,    2.9,    3.9,    4.1,    3.8,    3.2,    2.7,    2.2,    1.9,    1.4,    1.0,    0.4,   -0.1,   -0.6,   -0.8,   -0.5,   -0.4,   -0.7,   -0.9,   -1.2,   -1.4,   -1.7,   -1.7,   -1.8,   -1.8,   -2.4,   -2.7,   -3.0,  999.0,  999.0,   -0.6,   -1.8,   -1.5,   -1.5
2007/10/29 11:30,    0.0,    1.0,    2.6,    3.6,    4.2,    4.3,    5.1,    4.1,    3.2,    3.5,    4.6,    4.7,    5.0,    4.9,    5.1,    4.7,    4.4,    4.9,    5.4,  999.0,    7.1,    7.1,    6.6,    6.9,    7.5,    7.9,    7.8,    7.0,    6.7,  999.0,    5.7,  999.0,  999.0,  999.0,    4.7,  999.0,  999.0,  999.0,  999.0,  999.0,    3.6,    3.7,    4.4,  999.0,  999.0,  999.0,    5.1,    4.3,  999.0,  999.0,  999.0,  999.0,  999.0,  999.0,  999.0,  999.0,  999.0,  999.0,  999.0,  999.0,    2.1,    1.7,  999.0,    2.6,    2.2,    2.1,    2.0,    2.7,    2.6,    2.3,    2.0,    1.0,    0.7,    0.1,   -0.4,   -0.5,   -0.9,   -0.5,   -0.8,   -1.4,   -2.4,   -1.5,   -1.9,   -2.4,   -2.8,   -3.1,   -3.5,   -3.4,   -3.5,   -3.4,   -2.8,   -2.8,   -1.4,  999.0,  999.0,  999.0,  999.0,  999.0,  999.0
2007/10/29 11:40,    0.0,    1.6,    3.0,    3.6,    4.2,    4.3,    4.7,    3.8,    3.6,    4.6,    4.7,    4.8,    5.0,    4.7,    4.9,    4.6,    4.6,    5.0,    5.8,    6.3,    7.4,    7.3,    7.2,    7.3,    7.4,  999.0,  999.0,    5.9,    5.1,    5.4,  999.0,  999.0,  999.0,    4.1,    4.5,    3.7,    4.1,    3.5,    3.7,  999.0,  999.0,  999.0,    4.5,    5.7,    5.8,    5.9,    5.9,  999.0,  999.0,  999.0,  999.0,  999.0,  999.0,  999.0,  999.0,  999.0,  999.0,  999.0,  999.0,  999.0,   -0.8,  999.0,    0.9,    0.9,    1.4,    1.8,    2.1,    1.8,    1.5,    1.0,    0.7,    0.6,    0.4,    0.1,   -0.4,   -1.1,   -1.9,   -2.5,   -3.0,   -3.3,   -3.9,   -3.7,   -3.7,   -3.1,   -2.9,   -2.3,  999.0,   -2.5,   -2.3,   -1.6,   -2.8,   -1.8,  999.0,  999.0,  999.0,  999.0,  999.0,  999.0,  999.0
2007/10/29 11:50,  999.0,    1.9,    3.6,    4.1,    4.8,    5.1,    5.6,    4.9,    4.8,    4.9,    5.8,    5.7,    5.5,    5.0,    4.7,    4.6,    4.7,    4.8,    5.5,    6.3,    6.3,    7.0,    6.5,    7.1,    7.5,    7.4,  999.0,  999.0,  999.0,  999.0,    6.0,  999.0,  999.0,  999.0,  999.0,    3.5,    3.9,    3.5,    3.5,  999.0,  999.0,  999.0,  999.0,    5.2,  999.0,    5.4,  999.0,  999.0,  999.0,  999.0,  999.0,  999.0,  999.0,  999.0,  999.0,  999.0,  999.0,    0.3,  999.0,  999.0,  999.0,    1.1,    1.1,    0.8,    0.9,    1.1,    1.3,    1.3,    1.1,    0.9,    0.8,    0.9,    0.7,    0.1,   -0.6,   -1.3,   -2.2,   -3.0,   -3.8,   -4.5,   -5.1,   -5.4,   -4.6,   -4.1,   -3.3,   -3.3,   -2.6,   -2.3,   -1.7,   -1.4,  999.0,  999.0,  999.0,  999.0,  999.0,  999.0,  999.0,  999.0,  999.0
2007/10/29 12:00,    0.9,    2.0,    2.9,    4.0,    4.9,    5.3,    5.4,    5.3,    5.3,    5.1,    5.2,    5.2,    5.0,    5.2,    4.6,    4.4,    4.8,    5.3,    5.3,    6.6,    6.1,    6.9,    7.0,    6.9,    7.3,    7.7,    8.0,  999.0,  999.0,    5.7,    6.1,  999.0,  999.0,  999.0,  999.0,    3.6,    3.7,    3.2,    3.0,  999.0,  999.0,  999.0,  999.0,  999.0,  999.0,  999.0,  999.0,  999.0,    5.1,  999.0,  999.0,  999.0,  999.0,  999.0,  999.0,  999.0,  999.0,  999.0,  999.0,  999.0,  999.0,  999.0,  999.0,  999.0,  999.0,  999.0,  999.0,  999.0,  999.0,  999.0,  999.0,  999.0,  999.0,  999.0,  999.0,   -0.8,   -2.5,  999.0,   -3.9,  999.0,   -4.7,   -6.2,   -5.2,   -4.9,   -4.5,   -3.8,   -3.4,   -2.9,  999.0,  999.0,  999.0,  999.0,  999.0,  999.0,  999.0,  999.0,  999.0,  999.0,  999.0
2007/10/29 12:10,  999.0,    2.8,    3.2,    4.8,    4.8,    4.9,    5.0,    5.1,    5.1,    5.0,    5.1,    5.3,    4.7,    4.4,    3.8,    4.0,    4.7,    5.5,    5.7,    5.9,    6.1,    6.8,    6.6,    7.1,    8.0,  999.0,  999.0,  999.0,  999.0,  999.0,  999.0,  999.0,  999.0,  999.0,  999.0,    4.2,    4.0,  999.0,    3.8,  999.0,  999.0,  999.0,  999.0,    4.9,  999.0,  999.0,  999.0,  999.0,  999.0,    5.1,    4.7,  999.0,  999.0,    2.5,    2.2,  999.0,  999.0,  999.0,  999.0,  999.0,  999.0,  999.0,  999.0,  999.0,  999.0,  999.0,  999.0,  999.0,  999.0,  999.0,  999.0,  999.0,  999.0,  999.0,  999.0,    1.5,   -0.4,   -2.0,   -2.9,   -3.9,   -5.2,   -6.0,   -6.4,   -7.0,  999.0,  999.0,  999.0,  999.0,  999.0,  999.0,  999.0,  999.0,  999.0,  999.0,  999.0,  999.0,  999.0,  999.0,  999.0
2007/10/29 12:20,  999.0,  999.0,    4.8,    5.6,    6.4,    6.5,    6.6,    6.4,    5.8,    5.8,    5.9,    5.0,    5.0,  999.0,    4.8,    4.9,    5.0,    5.3,    5.2,    5.1,    5.6,    5.9,    6.3,    6.7,    6.9,    6.5,  999.0,  999.0,  999.0,  999.0,  999.0,  999.0,  999.0,  999.0,  999.0,    4.5,    4.9,    4.4,    3.7,    3.6,  999.0,  999.0,  999.0,    4.2,  999.0,  999.0,    3.5,    3.2,  999.0,  999.0,  999.0,  999.0,  999.0,  999.0,    1.1,    0.5,    0.1,  999.0,  999.0,  999.0,  999.0,  999.0,  999.0,  999.0,  999.0,  999.0,  999.0,  999.0,  999.0,  999.0,  999.0,  999.0,  999.0,    3.4,    2.9,    2.0,    1.1,   -0.0,   -1.1,   -2.1,   -3.2,   -4.1,   -4.8,   -5.4,   -5.8,  999.0,  999.0,  999.0,  999.0,  999.0,  999.0,  999.0,  999.0,  999.0,  999.0,  999.0,  999.0,  999.0,  999.0
2007/10/29 12:30,  999.0,  999.0,    4.1,    5.5,    6.6,    7.3,    7.6,    7.5,    7.0,    7.1,    7.2,    6.5,    5.1,    5.5,    5.4,    5.6,    5.8,    6.1,    6.3,    6.2,    6.7,    7.3,    7.4,    7.8,    7.8,    7.6,    7.1,    6.6,    6.4,    5.8,  999.0,  999.0,  999.0,  999.0,  999.0,  999.0,  999.0,  999.0,  999.0,  999.0,  999.0,  999.0,  999.0,  999.0,    4.4,  999.0,  999.0,  999.0,  999.0,  999.0,  999.0,  999.0,  999.0,  999.0,  999.0,  999.0,    1.2,  999.0,    1.1,  999.0,  999.0,  999.0,  999.0,  999.0,  999.0,  999.0,  999.0,  999.0,  999.0,  999.0,  999.0,  999.0,  999.0,    2.5,    2.1,    1.1,  999.0,  999.0,  999.0,  999.0,  999.0,  999.0,  999.0,  999.0,  999.0,  999.0,  999.0,  999.0,  999.0,  999.0,  999.0,  999.0,  999.0,  999.0,  999.0,  999.0,  999.0,  999.0,  999.0
2007/10/29 12:40,  999.0,    2.3,  999.0,  999.0,    3.4,    6.0,    6.5,    7.2,    6.6,    6.6,    6.1,    5.5,    4.9,    4.0,    4.4,    2.6,    2.4,    3.1,    4.7,    5.2,    7.5,    8.1,   13.3,   13.5,   13.5,   11.6,   11.9,   10.5,    6.3,    4.5,    4.9,    3.9,    3.5,    2.0,    2.6,    3.2,    3.1,    3.2,    1.8,  999.0,    3.1,    2.2,    2.7,    4.1,    5.5,    5.0,    5.8,    6.5,    7.8,    6.1,    6.3,    5.4,    4.9,    5.3,  999.0,  999.0,    3.3,    3.2,  999.0,  999.0,  999.0,  999.0,  999.0,  999.0,  999.0,  999.0,  999.0,  999.0,  999.0,  999.0,  999.0,  999.0,  999.0,  999.0,  999.0,  999.0,  999.0,  999.0,  999.0,  999.0,  999.0,  999.0,  999.0,  999.0,  999.0,  999.0,  999.0,  999.0,  999.0,  999.0,  999.0,  999.0,  999.0,  999.0,  999.0,  999.0,  999.0,  999.0,  999.0
2007/10/29 12:50,  999.0,  999.0,  999.0,  999.0,    5.7,    6.9,    7.2,    7.3,    7.0,    6.8,    6.3,    4.5,    5.1,    5.9,    5.8,  999.0,    2.0,    0.9,   -1.8,   -2.3,   -2.1,   -0.9,  999.0,  999.0,   -2.8,    0.6,    3.7,  999.0,  999.0,    4.2,    2.7,  999.0,    3.6,    3.9,    4.1,    5.1,    5.1,    3.0,    2.9,  999.0,  999.0,  999.0,  999.0,  999.0,    6.3,  999.0,    5.7,  999.0,  999.0,  999.0,  999.0,  999.0,  999.0,  999.0,    3.0,    3.0,  999.0,    1.1,  999.0,  999.0,  999.0,  999.0,   -1.0,   -1.2,  999.0,  999.0,  999.0,  999.0,  999.0,  999.0,  999.0,  999.0,  999.0,  999.0,  999.0,  999.0,  999.0,  999.0,  999.0,  999.0,  999.0,  999.0,  999.0,  999.0,  999.0,  999.0,  999.0,  999.0,  999.0,  999.0,  999.0,  999.0,  999.0,  999.0,  999.0,  999.0,  999.0,  999.0,  999.0
2007/10/29 13:00,  999.0,  999.0,    4.7,    5.7,    6.6,    6.8,    6.8,    6.4,    6.2,    7.0,    6.2,    5.8,    6.0,    6.6,    6.4,  999.0,  999.0,  999.0,    9.5,    8.3,    9.1,    9.2,   10.2,   11.6,   10.0,    9.6,    8.9,   10.5,   10.2,   13.4,   11.7,    7.5,   10.5,    9.5,    8.6,    9.0,   10.0,    8.1,    8.8,  999.0,    7.2,    6.1,    5.7,    5.4,    5.1,    5.4,  999.0,  999.0,    6.2,    7.7,    7.8,  999.0,  999.0,  999.0,  999.0,  999.0,  999.0,  999.0,  999.0,    0.6,    0.6,    0.3,    0.5,   -0.1,  999.0,  999.0,  999.0,  999.0,  999.0,  999.0,  999.0,  999.0,  999.0,  999.0,  999.0,  999.0,  999.0,  999.0,  999.0,  999.0,  999.0,  999.0,  999.0,  999.0,  999.0,  999.0,  999.0,  999.0,  999.0,  999.0,  999.0,  999.0,  999.0,  999.0,  999.0,  999.0,  999.0,  999.0,  999.0
2007/10/29 13:10,  999.0,    2.7,    5.5,    6.4,    6.5,  999.0,    6.5,    5.2,  999.0,  999.0,  999.0,    6.1,  999.0,  999.0,  999.0,  999.0,    1.9,    1.9,  999.0,    6.8,    7.5,    8.0,    9.0,    9.8,    9.5,    9.1,    9.0,    8.3,    7.6,    7.2,    6.9,    6.4,    6.7,  999.0,  999.0,  999.0,  999.0,  999.0,  999.0,  999.0,  999.0,  999.0,  999.0,  999.0,  999.0,  999.0,  999.0,  999.0,  999.0,  999.0,  999.0,  999.0,  999.0,  999.0,  999.0,  999.0,  999.0,  999.0,  999.0,  999.0,  999.0,  999.0,  999.0,    0.1,  999.0,  999.0,  999.0,  999.0,  999.0,  999.0,  999.0,  999.0,  999.0,  999.0,  999.0,  999.0,  999.0,  999.0,  999.0,  999.0,  999.0,  999.0,  999.0,  999.0,  999.0,  999.0,  999.0,  999.0,  999.0,  999.0,  999.0,  999.0,  999.0,  999.0,  999.0,  999.0,  999.0,  999.0,  999.0
2007/10/29 13:20,  999.0,    6.4,    6.8,    7.1,    7.2,    7.5,    6.4,    6.2,    6.3,    6.2,    6.3,    5.7,    5.9,    6.5,    7.2,    7.6,    8.0,    8.2,    8.2,    8.2,    8.0,    7.5,    7.8,    8.6,    7.3,    7.8,  999.0,    7.0,    7.6,    6.9,    6.8,  999.0,  999.0,  999.0,  999.0,    5.6,  999.0,  999.0,    7.3,  999.0,  999.0,  999.0,    4.6,    4.2,  999.0,  999.0,    2.8,    2.3,    2.4,    2.2,  999.0,  999.0,  999.0,  999.0,  999.0,  999.0,  999.0,  999.0,  999.0,  999.0,  999.0,  999.0,  999.0,  999.0,  999.0,  999.0,  999.0,  999.0,  999.0,  999.0,  999.0,  999.0,  999.0,  999.0,  999.0,  999.0,  999.0,  999.0,  999.0,  999.0,  999.0,  999.0,  999.0,  999.0,  999.0,  999.0,  999.0,  999.0,  999.0,  999.0,  999.0,  999.0,  999.0,  999.0,  999.0,  999.0,  999.0,  999.0,  999.0
2007/10/29 13:30,  999.0,    8.1,    7.9,    7.9,    7.7,    8.0,    7.0,    7.5,    7.2,    7.7,    7.9,  999.0,    6.7,    7.2,    7.8,    7.7,    8.3,    8.1,    7.2,    7.2,    6.8,    6.6,    6.8,    6.9,    6.7,    5.9,    5.7,    5.5,    5.7,    5.4,    5.7,  999.0,  999.0,  999.0,    4.5,    5.4,  999.0,    6.2,    6.3,    5.8,    5.5,    4.4,  999.0,  999.0,  999.0,  999.0,    2.6,    2.2,  999.0,    1.8,  999.0,  999.0,  999.0,  999.0,  999.0,  999.0,  999.0,  999.0,  999.0,  999.0,  999.0,  999.0,  999.0,  999.0,  999.0,  999.0,  999.0,  999.0,  999.0,  999.0,  999.0,  999.0,  999.0,  999.0,  999.0,  999.0,  999.0,  999.0,  999.0,  999.0,  999.0,  999.0,  999.0,  999.0,  999.0,  999.0,  999.0,  999.0,  999.0,  999.0,  999.0,  999.0,  999.0,  999.0,  999.0,  999.0,  999.0,  999.0,  999.0
2007/10/29 13:40,  999.0,  999.0,  999.0,    6.6,    7.1,    6.8,    6.9,    7.0,    7.8,    6.8,    6.7,    6.4,    6.7,    6.8,    7.9,    7.3,    8.0,    8.4,    8.0,    7.8,    7.4,    7.9,    8.6,    8.2,    8.0,    8.2,    8.0,    8.2,    6.7,    6.8,    5.8,    6.1,  999.0,  999.0,    5.3,    6.2,    6.6,    6.6,    6.1,    6.6,  999.0,  999.0,  999.0,  999.0,  999.0,  999.0,  999.0,    2.4,    2.9,    2.3,    2.1,  999.0,  999.0,  999.0,  999.0,  999.0,  999.0,  999.0,  999.0,  999.0,  999.0,  999.0,  999.0,  999.0,  999.0,  999.0,  999.0,  999.0,  999.0,  999.0,  999.0,  999.0,  999.0,  999.0,  999.0,  999.0,  999.0,  999.0,  999.0,  999.0,  999.0,  999.0,  999.0,  999.0,  999.0,  999.0,  999.0,  999.0,  999.0,  999.0,  999.0,  999.0,  999.0,  999.0,  999.0,  999.0,  999.0,  999.0,  999.0
2007/10/29 13:50,  999.0,  999.0,    6.7,    5.8,    4.8,    5.4,    5.8,    4.9,    5.6,    6.7,    5.4,    8.7,    7.2,    7.4,    8.2,    8.0,    8.1,    8.2,    8.3,    8.3,    8.6,    9.2,    9.0,    8.7,    8.5,    8.4,    8.7,    8.7,    7.8,    7.4,    6.4,    6.1,    5.5,    5.3,    5.6,    6.3,    6.1,    6.2,    6.4,    6.9,    6.8,  999.0,    4.8,  999.0,  999.0,  999.0,    3.6,    3.0,    2.4,    2.5,  999.0,  999.0,    2.5,  999.0,  999.0,  999.0,  999.0,  999.0,  999.0,  999.0,  999.0,  999.0,  999.0,  999.0,  999.0,  999.0,  999.0,  999.0,  999.0,  999.0,  999.0,  999.0,  999.0,  999.0,  999.0,  999.0,  999.0,  999.0,  999.0,  999.0,  999.0,  999.0,  999.0,  999.0,  999.0,  999.0,  999.0,  999.0,  999.0,  999.0,  999.0,  999.0,  999.0,  999.0,  999.0,  999.0,  999.0,  999.0,    2.5
2007/10/29 14:00,  999.0,    6.2,    7.9,    8.5,    8.4,    8.3,    8.1,    8.3,    8.4,    8.1,    8.1,    8.4,    8.1,    8.4,    8.6,    8.3,    8.3,    8.6,    8.4,    8.1,    8.9,    9.3,    9.4,    9.2,    9.2,    8.6,    8.6,    8.9,    8.6,    7.7,    6.2,    5.9,    6.1,    6.0,    6.4,    6.0,    6.8,    7.0,    7.9,    7.8,  999.0,  999.0,  999.0,  999.0,  999.0,  999.0,  999.0,    3.1,    3.3,    2.4,  999.0,    2.2,  999.0,  999.0,  999.0,  999.0,  999.0,  999.0,  999.0,  999.0,  999.0,  999.0,  999.0,  999.0,  999.0,  999.0,  999.0,  999.0,  999.0,  999.0,  999.0,  999.0,  999.0,  999.0,  999.0,  999.0,  999.0,  999.0,  999.0,  999.0,  999.0,  999.0,  999.0,  999.0,  999.0,  999.0,  999.0,  999.0,  999.0,  999.0,  999.0,  999.0,   -3.5,   -2.8,   -2.8,   -3.1,   -3.2,   -3.4,   -3.5
2007/10/29 14:10,  999.0,    6.6,    7.5,    8.0,    7.7,    7.5,    8.1,    8.0,    8.2,    8.0,    7.7,    7.8,    8.5,    8.2,    7.9,    8.3,    8.3,    8.4,    8.2,    8.1,    8.6,  999.0,    9.2,  999.0,    9.4,    9.5,    9.2,    9.1,    8.7,    8.0,    7.1,    6.9,    6.7,    6.6,    7.2,    7.7,    7.7,    7.1,    8.0,    8.5,    7.0,  999.0,  999.0,  999.0,  999.0,  999.0,  999.0,    3.9,    2.7,    1.9,  999.0,  999.0,  999.0,  999.0,  999.0,  999.0,  999.0,  999.0,  999.0,  999.0,  999.0,  999.0,  999.0,  999.0,  999.0,  999.0,  999.0,  999.0,  999.0,  999.0,  999.0,  999.0,  999.0,  999.0,  999.0,  999.0,  999.0,  999.0,  999.0,  999.0,  999.0,  999.0,  999.0,  999.0,  999.0,   -4.6,   -4.5,   -3.7,   -3.5,   -3.6,   -3.9,   -4.0,   -3.9,   -3.6,   -3.5,   -3.5,   -3.7,   -3.5,   -2.8
2007/10/29 14:20,  999.0,    6.2,    7.2,    7.7,    8.1,    8.1,    8.3,    8.3,    7.9,    8.1,    8.3,    8.5,    8.5,    8.2,  999.0,  999.0,    7.7,    7.8,    7.8,    8.0,    7.9,    8.3,    8.7,    8.7,    9.0,    8.5,    8.5,    8.3,    8.4,  999.0,  999.0,  999.0,    7.5,    7.6,    7.7,    8.2,    8.2,    8.3,    8.2,    8.6,    8.3,    7.1,    7.2,    6.2,    6.3,  999.0,  999.0,    3.8,    3.6,  999.0,  999.0,  999.0,  999.0,  999.0,  999.0,  999.0,  999.0,  999.0,  999.0,  999.0,  999.0,  999.0,  999.0,  999.0,  999.0,  999.0,  999.0,  999.0,  999.0,  999.0,  999.0,  999.0,  999.0,  999.0,  999.0,  999.0,  999.0,  999.0,  999.0,  999.0,  999.0,  999.0,   -1.5,  999.0,   -3.3,  999.0,   -5.2,   -5.0,   -4.7,   -4.5,   -4.8,   -5.0,   -4.6,   -4.4,   -4.3,   -4.5,   -4.7,   -4.3,   -3.9
2007/10/29 14:30,  999.0,    5.2,    7.6,    7.5,    8.0,    8.4,    8.3,    8.4,    8.6,    8.5,    8.7,    7.9,    7.9,    7.9,    8.5,    8.5,    8.5,    8.2,    7.8,    7.7,    8.3,    8.8,    8.7,    9.1,    9.2,    9.1,    8.9,    8.6,    8.6,  999.0,  999.0,    7.5,    8.3,    8.5,    8.4,  999.0,  999.0,    7.8,    8.0,  999.0,  999.0,    7.8,  999.0,  999.0,  999.0,  999.0,  999.0,  999.0,  999.0,  999.0,  999.0,  999.0,  999.0,    2.9,    3.2,    3.3,    2.5,    2.4,    1.9,    1.3,    1.0,    1.1,  999.0,  999.0,  999.0,  999.0,  999.0,  999.0,  999.0,  999.0,  999.0,  999.0,  999.0,  999.0,  999.0,  999.0,  999.0,  999.0,  999.0,  999.0,  999.0,  999.0,  999.0,  999.0,  999.0,  999.0,  999.0,  999.0,  999.0,  999.0,  999.0,  999.0,  999.0,  999.0,  999.0,   -4.7,   -4.9,   -5.0,   -4.5
2007/10/29 14:40,  999.0,  999.0,    9.2,    9.8,   10.2,   10.0,    9.4,    8.6,    8.3,    8.0,    7.9,    7.9,    7.6,    7.8,    6.8,    8.2,    8.5,    7.8,    7.1,    6.9,    7.3,    6.9,    7.6,    7.7,    7.1,    8.4,    9.1,    9.1,    9.0,  999.0,  999.0,  999.0,  999.0,    8.3,    8.1,  999.0,  999.0,  999.0,    7.3,  999.0,    8.4,    8.3,    6.4,  999.0,  999.0,  999.0,  999.0,  999.0,    4.8,    3.6,    2.8,    3.0,    3.4,    3.9,    4.2,    3.9,    3.2,    2.6,    1.8,    1.1,    0.5,  999.0,  999.0,  999.0,  999.0,  999.0,  999.0,  999.0,  999.0,    1.9,    2.8,  999.0,    0.8,    0.9,  999.0,  999.0,  999.0,  999.0,  999.0,  999.0,  999.0,  999.0,  999.0,  999.0,   -5.2,   -5.7,  999.0,  999.0,  999.0,  999.0,  999.0,  999.0,  999.0,  999.0,  999.0,  999.0,  999.0,  999.0,  999.0
2007/10/29 14:50,  999.0,  999.0,    8.8,   10.5,    8.8,    8.6,   11.3,    8.5,  999.0,  999.0,   -2.3,   -2.2,    5.3,  999.0,  999.0,   10.6,    9.2,    9.3,   -1.1,   12.5,   -0.3,    0.9,    0.2,   -2.2,   -8.4,   -8.7,   -5.0,   -2.8,   -5.7,   -6.0,  -17.6,  999.0,  999.0,  999.0,  999.0,  999.0,  999.0,  999.0,  -16.9,  -21.7,  -25.9,  -23.5,  999.0,  999.0,  999.0,  999.0,  999.0,  999.0,    6.9,    5.6,    4.7,    4.5,    4.6,    5.0,    5.1,    4.3,    3.8,    3.4,    3.0,    2.9,    1.8,    1.1,    1.0,    1.0,    1.0,    1.2,    1.1,    1.6,    1.5,    1.7,    1.3,    0.4,   -0.1,   -0.1,   -0.2,   -0.5,   -0.8,   -2.5,   -2.7,   -4.4,   -4.1,   -4.0,  999.0,  999.0,  999.0,   -4.2,  999.0,   -5.7,   -5.8,   -6.2,   -6.3,   -6.5,   -6.6,   -6.7,   -6.7,   -6.7,   -6.6,   -6.8,   -6.9
2007/10/29 15:00,  -22.1,  -20.8,  -20.0,  -21.4,  -22.8,  -23.7,  -25.4,  -26.1,  -27.1,  -28.0,  -28.5,  -28.1,  -27.7,  -26.6,  999.0,  999.0,  999.0,  999.0,   -9.1,   -7.3,   -8.0,  999.0,    7.8,    5.8,  999.0,    4.9,    5.8,  999.0,    6.2,    5.6,  999.0,    5.0,  999.0,    5.6,  999.0,  999.0,  999.0,  999.0,  999.0,  999.0,  999.0,  999.0,  999.0,  999.0,  999.0,  999.0,  999.0,  999.0,  999.0,  999.0,  999.0,  999.0,  999.0,  999.0,  999.0,    8.9,  999.0,  999.0,    4.3,    4.4,    4.6,    4.6,    4.5,    4.9,    2.9,    3.1,    2.5,    2.4,    2.6,    3.0,    3.2,    3.2,    2.2,    0.8,    0.1,   -0.7,   -1.9,  999.0,   -3.8,   -3.7,   -3.5,   -3.7,   -4.2,   -4.8,   -5.1,   -5.4,   -5.8,   -5.9,   -6.0,   -6.3,   -6.4,   -6.3,   -6.3,   -6.6,   -6.5,   -6.4,   -6.6,   -6.7,   -6.9
2007/10/29 15:10,  999.0,  -21.1,  -22.3,  -23.3,  -23.4,  -23.8,  -24.3,  999.0,    9.9,  999.0,    8.1,    8.1,   -4.1,    3.6,    7.5,    7.9,    8.0,    8.5,    7.6,    7.8,    8.0,    8.8,    8.1,    8.0,    9.1,    8.0,    7.1,    7.0,    7.2,   10.2,    8.3,    8.4,    3.9,    6.8,    5.2,    7.2,    7.7,    7.8,    5.7,    8.1,    6.3,    6.7,  999.0,  999.0,  999.0,  999.0,    5.8,    5.6,    5.6,    5.7,    6.3,    7.3,    6.8,    5.9,    3.7,    3.7,    2.6,  999.0,    0.9,    0.7,    1.3,    1.3,    2.2,    2.8,    2.1,    2.5,    2.5,    2.8,    2.8,    3.3,    3.7,    3.2,    2.2,    0.5,   -0.3,   -1.3,   -3.3,   -5.3,   -3.2,   -4.2,   -3.1,   -3.4,   -3.9,   -5.0,   -2.6,   -4.0,   -5.8,   -4.9,   -4.8,   -4.6,   -4.8,   -4.3,   -3.9,   -4.0,   -5.7,   -6.6,   -8.6,   -8.6,   -6.9
2007/10/29 15:20,  999.0,  999.0,  -20.2,  999.0,  999.0,  999.0,  999.0,  999.0,   11.4,   11.0,   10.1,    9.2,    8.6,    9.0,    8.6,    8.0,    7.4,    7.5,    7.7,    7.5,    7.5,    7.5,    7.6,    7.6,    7.9,    8.0,    7.5,    7.6,    8.1,    7.6,    8.4,    9.1,    9.5,    9.1,    9.3,    9.5,    9.9,   10.2,   10.0,    9.9,    9.6,    9.5,    9.5,  999.0,  999.0,   10.7,    8.9,    8.7,    9.0,    8.6,    8.0,    8.0,    7.0,    6.3,    5.5,    4.9,    4.1,    3.6,    3.4,    2.7,    2.5,    2.3,    2.3,    2.1,    2.0,    1.9,    1.8,    1.9,    2.2,    2.6,    3.0,    3.3,    3.0,    2.9,    2.3,    1.7,    1.7,    1.3,    1.0,    0.8,   -0.1,   -0.5,   -1.3,   -1.5,   -2.8,   -3.0,   -4.7,   -4.2,   -4.2,   -4.7,   -4.4,   -5.0,   -4.5,   -4.9,   -3.7,   -4.4,   -3.6,   -3.7,   -3.0
2007/10/29 15:30,  999.0,  999.0,  -19.4,  -20.1,  -20.9,  999.0,  999.0,  999.0,   10.9,   10.4,    9.8,    9.0,    8.4,    8.3,    8.2,    7.8,    7.4,    6.7,    6.8,    6.8,    6.6,    6.0,    6.6,    6.9,    7.3,    7.2,    7.0,    7.0,    7.2,    7.2,    6.7,    6.8,    6.7,    6.8,    7.8,    8.3,    8.1,    7.2,    7.1,    7.9,    7.7,    8.9,    7.6,    8.3,  999.0,    8.7,    8.6,    8.2,    8.2,    8.4,    8.2,    8.2,    7.9,    7.6,    7.6,    7.1,    6.8,    6.4,    5.7,    5.3,    4.7,    4.1,    3.6,    3.2,    2.6,    2.3,    2.2,    2.1,    2.0,    2.0,    1.9,    1.8,    1.8,    1.9,    1.9,    1.9,    1.8,    1.4,    1.1,    1.1,    0.9,    0.7,    0.3,   -0.4,   -1.1,   -2.0,   -2.9,   -3.7,   -4.2,   -4.6,   -4.9,   -5.0,   -5.3,   -5.9,   -6.5,   -7.0,   -7.7,   -8.1,   -8.5
2007/10/29 15:40,  999.0,  -23.4,  -22.1,  -21.8,  -21.7,  -22.8,  -24.0,  -24.7,  -24.8,  999.0,  999.0,  999.0,  999.0,    7.9,    7.0,    6.3,    5.5,    5.9,    5.5,    5.2,    7.0,    6.8,  999.0,  999.0,  999.0,  999.0,    8.2,  999.0,  999.0,  999.0,  999.0,   -3.8,   -3.5,   -6.5,   -9.1,   -4.3,   -3.6,   -4.2,  -14.2,    4.8,    5.6,    4.7,    2.5,    5.1,    7.5,    7.9,    8.9,    8.8,    7.6,    8.3,    8.7,    8.7,    8.3,    7.9,    7.2,    6.8,    6.6,    6.4,    6.1,    5.9,    6.1,    5.7,    5.5,    5.2,    4.6,    4.4,    3.9,    3.6,    2.8,    2.5,    2.3,    2.2,    2.4,    2.3,    2.3,    2.1,    1.9,    1.8,    1.7,    1.6,    1.4,    1.2,    0.9,    0.6,    0.5,    0.1,   -0.2,   -1.1,   -1.8,   -2.4,   -3.6,   -4.3,   -4.7,   -5.1,   -5.4,   -5.3,   -5.5,   -5.5,   -5.2
2007/10/29 15:50,  999.0,  -22.0,  -21.2,  -21.8,  -22.5,  -23.8,  -23.1,  -23.7,  999.0,  -11.8,  -11.6,  -23.1,  999.0,  999.0,  999.0,  999.0,  999.0,  999.0,  999.0,    5.9,  999.0,  999.0,  999.0,  999.0,  999.0,    3.8,  999.0,  999.0,  999.0,  999.0,  -30.5,  -30.7,  -30.1,  -31.5,  -30.4,  -30.0,  -30.6,  -31.3,  -31.4,  -30.9,  -31.0,  999.0,  999.0,  999.0,  999.0,  999.0,    7.1,    7.3,    6.8,    7.1,    7.2,    7.0,    6.3,    5.7,    5.2,    5.2,    5.3,    5.2,    5.0,    5.0,    5.0,    5.0,    4.9,    4.7,    3.1,    1.9,    1.7,    1.5,    1.6,    1.3,    1.3,    1.2,    0.9,    0.7,    0.6,    0.2,    0.2,    0.2,    0.3,    0.6,    0.5,    0.6,    0.8,    0.7,    0.5,    0.2,   -0.2,   -0.5,   -1.1,   -2.0,   -2.8,   -3.4,   -3.7,   -4.2,   -4.4,   -4.6,   -4.9,   -4.8,   -4.9
2007/10/29 16:00,  -23.1,  -21.8,  -20.8,  -19.9,  -20.9,  -21.9,  -22.7,  -22.3,  -22.2,  -13.8,  -14.0,  -22.6,  -22.6,  -24.4,  -23.9,  -24.7,  -24.3,  -26.9,  -27.9,  999.0,  -28.1,  999.0,  -28.9,  -29.0,  999.0,  -28.6,  -18.3,  -29.4,  -30.1,  -30.6,  -30.2,  -30.0,  -29.9,  -29.6,  -30.7,  -29.3,  -30.0,  -30.2,  -30.3,  -30.6,  -30.1,  -29.8,  999.0,  999.0,  999.0,  999.0,    5.6,    6.2,    6.6,    6.6,    6.7,    6.2,    5.9,    5.6,    5.2,    4.9,    4.6,    4.3,    3.7,    2.9,    2.4,    2.0,    1.8,    1.4,    1.0,    0.4,    0.1,    0.1,    0.0,   -0.1,   -0.0,   -0.0,    0.1,    0.3,    0.4,    0.3,    0.2,   -0.0,   -0.1,   -0.3,   -0.1,   -0.0,   -0.1,   -0.1,   -0.2,   -0.2,   -0.3,   -0.7,   -1.4,   -2.0,   -3.0,   -3.8,   -4.1,   -4.2,   -4.3,   -4.3,   -4.1,   -3.8,   -3.4
2007/10/29 16:10,  -22.8,  -21.5,  -20.5,  -20.3,  -19.9,  -20.1,  -21.2,  -21.1,  -20.8,  -21.5,  -20.8,  -21.3,  -21.6,  -21.5,  -21.8,  -22.3,  -23.5,  -24.3,  -24.3,  -25.6,  -26.3,  -26.7,  -28.1,  -28.4,  -28.3,  -28.6,  -29.9,  999.0,  999.0,  -30.1,  -30.0,  -29.6,  -29.6,  -29.8,  -30.1,  -29.9,  -29.5,  -30.1,  -30.4,  -30.6,  999.0,  999.0,  999.0,  999.0,  999.0,  999.0,    5.6,    6.0,    5.8,    5.9,    5.9,    5.6,    5.1,    4.9,    4.6,    4.1,    3.6,    3.5,    2.0,    1.1,    0.3,    0.0,   -0.3,   -0.7,   -0.8,   -0.9,   -1.0,   -1.2,   -1.7,   -2.3,   -2.7,   -2.7,   -2.3,   -2.5,   -2.2,   -1.8,   -2.0,   -2.1,   -1.9,   -1.6,   -1.2,   -0.9,   -0.7,   -0.6,   -0.6,   -0.7,   -0.5,   -0.6,   -0.8,   -1.0,   -1.4,   -2.0,   -2.4,   -2.7,   -2.9,   -3.1,   -3.3,   -3.3,   -3.5
2007/10/29 16:20,  -23.9,  -22.1,  -21.2,  -20.1,  -19.7,  -20.4,  -20.8,  -20.2,  -20.6,  -19.9,  -19.9,  -19.9,  -19.7,  -19.9,  -20.2,  -20.9,  -21.0,  -21.0,  -21.2,  -20.9,  -21.2,  -22.5,  -24.3,  -25.9,  -26.7,  -27.8,  -28.6,  -29.4,  -29.4,  -29.5,  -30.0,  -30.3,  -29.8,  -29.9,  -30.2,  -29.9,  -29.8,  -29.7,  -29.1,  -29.3,  -29.7,  999.0,  999.0,  999.0,  999.0,  999.0,    4.1,    4.2,    4.2,    4.5,    4.7,    4.5,    4.0,    3.5,    2.9,    2.5,    2.0,    1.3,    0.1,   -0.9,   -1.3,   -1.7,   -2.2,   -2.4,   -2.6,   -3.0,   -3.1,   -3.4,   -4.2,   -4.8,   -5.1,   -5.1,   -5.1,   -4.8,   -4.1,   -3.6,   -3.5,   -3.4,   -3.1,   -2.5,   -2.1,   -2.0,   -2.0,   -2.1,   -2.2,   -2.1,   -2.2,   -2.2,   -2.1,   -2.2,   -2.4,   -2.9,   -3.3,   -3.7,   -4.1,   -4.3,   -4.4,   -4.7,   -4.9
2007/10/29 16:30,  -23.8,  -22.2,  -21.5,  -21.0,  -20.1,  -19.5,  -18.8,  -18.2,  -19.2,  -19.6,  -21.2,  -22.9,  -23.2,  -22.5,  -22.0,  -21.3,  -20.6,  -20.8,  -21.6,  -21.0,  -20.3,  -21.3,  -21.9,  -22.8,  -23.2,  -24.3,  -25.5,  -26.3,  -28.1,  -28.5,  -29.6,  -29.4,  -30.2,  -29.6,  -29.6,  -29.4,  -29.5,  -29.3,  -29.3,  -28.6,  -29.7,  999.0,  999.0,  999.0,  999.0,  999.0,    4.5,    4.4,    4.3,    4.4,    4.5,    4.3,    3.8,    3.2,    2.4,    2.0,    1.6,    1.2,    0.2,   -0.9,   -1.4,   -1.7,   -1.8,   -2.2,   -2.4,   -2.3,   -2.3,   -2.5,   -2.9,   -3.2,   -3.5,   -3.7,   -4.0,   -4.2,   -4.2,   -4.0,   -3.5,   -2.9,   -2.5,   -2.4,   -2.5,   -2.6,   -2.9,   -3.1,   -3.1,   -3.1,   -3.2,   -3.3,   -3.4,   -3.9,   -4.4,   -4.6,   -4.7,   -4.7,   -4.5,   -4.4,   -4.2,   -4.2,   -4.1
2007/10/29 16:40,  -24.2,  -22.5,  -21.8,  -20.9,  -19.9,  -19.8,  -19.6,  -20.5,  -21.7,  -22.7,  -24.0,  -24.5,  -24.9,  -23.9,  -24.3,  -23.8,  -24.6,  -24.7,  -24.5,  -23.5,  -23.1,  -23.5,  -23.8,  -22.9,  -24.1,  -24.1,  -24.2,  -24.1,  -24.5,  -24.5,  -24.6,  -25.2,  -25.3,  -25.8,  -26.2,  -26.6,  -26.8,  -27.2,  -27.6,  -28.3,  999.0,  999.0,  999.0,  999.0,  999.0,    5.3,    5.2,    5.2,    4.9,    5.1,    5.2,    4.9,    4.6,    4.3,    3.6,    3.0,    2.2,    1.2,    0.3,   -0.4,   -1.2,   -2.1,   -2.9,   -3.4,   -3.5,   -3.5,   -3.7,   -3.8,   -3.9,   -3.8,   -4.0,   -4.1,   -4.2,   -4.6,   -4.8,   -5.0,   -5.0,   -4.5,   -3.7,   -3.1,   -2.5,   -2.2,   -2.2,   -2.4,   -2.8,   -3.4,   -3.8,   -4.0,   -4.3,   -4.6,   -5.0,   -4.9,   -4.7,   -4.4,   -4.0,   -3.9,   -3.9,   -3.9,   -3.9
2007/10/29 16:50,  -24.9,  -24.6,  -24.1,  -23.2,  -22.5,  -22.4,  -22.2,  -21.9,  -21.6,  -21.9,  -22.3,  -22.9,  -23.6,  -23.1,  -23.1,  -23.1,  -22.8,  -22.9,  -22.8,  -23.2,  -23.9,  -25.5,  -25.9,  -25.6,  -25.9,  -25.6,  -25.6,  -26.2,  -26.6,  -26.1,  -26.9,  -26.7,  -27.1,  -26.7,  -27.2,  -27.4,  -27.4,  -27.7,  -28.2,  -28.3,  999.0,  999.0,  999.0,  999.0,  999.0,    5.8,    6.2,    6.0,    6.4,    6.3,    5.9,    5.5,    5.0,    4.4,    3.9,    3.3,    2.7,    2.2,    1.6,    0.6,   -0.5,   -1.7,   -2.7,   -3.6,   -3.8,   -3.8,   -4.0,   -3.9,   -3.9,   -3.7,   -3.9,   -4.2,   -4.5,   -4.6,   -4.9,   -5.2,   -5.6,   -5.8,   -5.7,   -5.3,   -4.6,   -4.0,   -3.2,   -2.6,   -2.5,   -2.6,   -2.6,   -2.7,   -2.8,   -2.8,   -3.0,   -3.0,   -3.1,   -3.1,   -3.0,   -3.0,   -3.0,   -3.3,   -3.4
2007/10/29 17:00,  999.0,  999.0,  -24.6,  -24.2,  -23.4,  -22.6,  -21.9,  -22.4,  -23.0,  -22.5,  -21.5,  -21.7,  -23.1,  -23.2,  -23.8,  -23.7,  -23.2,  -22.8,  -22.5,  -22.7,  -23.1,  -23.7,  -24.0,  -24.1,  -24.3,  -24.4,  -25.5,  -26.3,  -26.5,  -28.0,  -28.5,  -28.6,  -28.4,  -28.8,  -28.5,  -28.0,  -28.2,  -28.2,  -27.9,  -27.4,  -27.3,  999.0,  999.0,  999.0,  999.0,    7.0,    7.2,    7.0,    7.2,    7.2,    7.1,    6.7,    6.4,    5.9,    5.1,    4.5,    3.7,    2.7,    1.8,    1.1,    0.6,   -0.1,   -1.1,   -2.3,   -3.2,   -3.9,   -4.1,   -4.1,   -4.1,   -4.1,   -4.3,   -4.4,   -4.7,   -4.8,   -5.0,   -5.2,   -5.4,   -5.7,   -6.0,   -6.0,   -5.9,   -5.2,   -4.4,   -3.8,   -3.4,   -3.2,   -3.1,   -3.1,   -3.0,   -2.9,   -2.7,   -2.6,   -2.6,   -2.8,   -2.7,   -2.9,   -3.2,   -3.5,   -3.8
2007/10/29 17:10,  999.0,  999.0,  -24.9,  -23.5,  -22.9,  -22.6,  -22.4,  -22.9,  -22.7,  -22.9,  -23.2,  -22.4,  -22.0,  -22.0,  -22.1,  -22.2,  -21.6,  -21.7,  -21.8,  -22.2,  -22.6,  -22.6,  -23.2,  -23.2,  -23.5,  -23.3,  -23.3,  -23.3,  -23.6,  -24.1,  -24.4,  -25.1,  -25.9,  -26.3,  999.0,  999.0,  999.0,  999.0,  -28.9,  999.0,  999.0,  999.0,  999.0,  999.0,  999.0,  999.0,    6.9,    7.2,    6.7,    6.5,    6.1,    5.7,    5.4,    5.3,    4.9,    4.4,    4.1,    3.1,    1.5,    0.5,   -0.2,   -0.5,   -0.9,   -1.9,   -2.9,   -3.7,   -4.2,   -4.5,   -4.6,   -4.7,   -5.0,   -5.2,   -5.2,   -4.7,   -4.4,   -4.3,   -4.3,   -4.5,   -4.7,   -4.9,   -5.1,   -4.9,   -4.7,   -4.2,   -4.0,   -3.8,   -3.9,   -3.9,   -4.1,   -4.1,   -4.0,   -3.8,   -3.8,   -3.8,   -3.8,   -3.9,   -3.9,   -4.1,   -4.4
2007/10/29 17:20,    8.0,  999.0,  999.0,  -25.1,  -24.5,  -22.9,  -22.3,  -23.3,  -23.5,  -23.8,  -23.1,  -22.5,  -22.5,  -22.4,  -22.6,  -22.4,  -22.2,  -22.0,  -21.8,  -22.3,  -22.6,  -22.4,  -22.9,  -24.0,  -25.1,  -25.6,  -25.8,  -26.4,  -25.8,  -25.8,  -25.2,  -25.3,  -25.3,  -25.5,  -25.7,  -25.8,  -25.9,  -27.0,  -27.8,  -28.3,  999.0,  999.0,  999.0,  999.0,  999.0,  999.0,  999.0,    3.9,    3.8,    3.9,    3.9,    4.0,    4.0,    4.0,    4.2,    4.3,    4.3,    3.7,    2.5,    1.0,    0.1,   -0.4,   -1.0,   -2.0,   -2.8,   -3.6,   -4.3,   -4.9,   -5.1,   -5.5,   -5.9,   -6.0,   -5.8,   -5.4,   -5.0,   -4.8,   -4.4,   -4.2,   -4.3,   -4.7,   -4.7,   -4.5,   -4.4,   -4.3,   -4.2,   -4.0,   -4.0,   -4.0,   -4.0,   -3.9,   -3.6,   -3.5,   -3.7,   -3.6,   -3.7,   -3.6,   -3.6,   -3.9,   -4.5
2007/10/29 17:30,    6.4,  -27.4,  -26.8,  -26.0,  -25.0,  -23.6,  -22.7,  -23.2,  -24.1,  -23.8,  -23.0,  -23.4,  -22.7,  -22.4,  -21.8,  -21.7,  -21.4,  -21.3,  -22.2,  -22.5,  -22.0,  -21.3,  -21.2,  -21.1,  -22.8,  -24.0,  -24.6,  -24.9,  -24.5,  -24.7,  -24.9,  -24.5,  -24.2,  -24.7,  -25.5,  -25.8,  -26.1,  -25.9,  -25.9,  -26.4,  -27.3,  999.0,  999.0,  999.0,  999.0,  999.0,  999.0,    4.2,    3.7,    3.1,    2.8,    2.8,    2.8,    3.0,    3.1,    3.4,    3.5,    2.9,    2.3,    1.0,    0.0,   -0.2,   -0.8,   -1.8,   -2.8,   -3.5,   -4.3,   -5.0,   -5.5,   -5.9,   -6.1,   -5.7,   -5.4,   -5.3,   -5.3,   -5.6,   -5.5,   -5.1,   -5.0,   -4.8,   -4.7,   -4.6,   -4.6,   -4.2,   -3.9,   -3.7,   -3.2,   -2.9,   -2.8,   -2.7,   -2.8,   -2.7,   -2.9,   -3.1,   -3.1,   -2.9,   -2.8,   -3.4,   -4.1
2007/10/29 17:40,  999.0,  -27.6,  -27.2,  -26.3,  -25.4,  -23.8,  -23.4,  -23.7,  -23.8,  -22.8,  -22.7,  -23.1,  -23.7,  -23.9,  -23.5,  -22.5,  -21.6,  -21.0,  -21.8,  -22.7,  -22.5,  -22.7,  -22.3,  -21.8,  -21.9,  -23.0,  -24.6,  -25.5,  -25.9,  -26.3,  -26.3,  -26.2,  -26.5,  -26.6,  -26.8,  -27.1,  -27.8,  -28.2,  -27.5,  -27.1,  -27.0,  999.0,  999.0,  999.0,  999.0,  999.0,    6.4,    5.3,    5.0,    4.6,    4.1,    3.5,    3.1,    2.8,    2.8,    2.8,    2.6,    2.5,    2.4,    1.5,    0.7,    0.3,   -0.4,   -1.4,   -2.3,   -2.9,   -3.9,   -4.6,   -5.1,   -5.2,   -5.2,   -4.8,   -4.6,   -4.3,   -4.1,   -4.7,   -5.1,   -5.2,   -5.1,   -4.7,   -4.6,   -4.5,   -4.5,   -4.3,   -3.9,   -3.7,   -3.4,   -3.3,   -3.2,   -3.1,   -2.7,   -2.8,   -3.0,   -3.1,   -3.0,   -2.9,   -2.8,   -3.1,   -3.8
2007/10/29 17:50,  999.0,   -4.5,  -20.3,  -26.4,  -25.9,  -24.3,  -24.2,  -23.8,  -22.7,  -22.5,  -22.5,  -22.4,  -23.3,  -23.3,  -22.7,  -21.5,  -20.7,  -20.3,  -20.2,  -20.9,  -21.7,  -22.4,  -22.4,  -21.6,  -21.4,  -21.6,  -23.1,  -25.2,  -26.6,  -26.9,  -27.0,  -26.8,  -26.6,  -27.0,  -27.7,  -28.7,  -29.4,  -29.3,  -28.5,  -27.6,  -27.6,  999.0,  999.0,  999.0,  999.0,  999.0,  999.0,    4.7,    4.4,    4.7,    4.8,    4.4,    3.3,    2.9,    2.7,    2.6,    2.3,    2.3,    2.7,    2.2,    1.4,    0.5,   -0.2,   -1.2,   -2.1,   -3.1,   -3.9,   -4.4,   -4.7,   -4.4,   -4.1,   -4.1,   -4.3,   -4.4,   -4.3,   -4.3,   -4.4,   -4.4,   -4.3,   -4.2,   -4.1,   -3.9,   -4.0,   -4.2,   -4.2,   -4.2,   -4.1,   -4.0,   -3.9,   -3.7,   -3.4,   -3.2,   -3.1,   -3.3,   -3.4,   -3.3,   -3.1,   -3.2,   -3.4
2007/10/29 18:00,  999.0,    6.4,  999.0,  999.0,  999.0,  999.0,  999.0,  -23.7,  -23.2,  -23.2,  -22.3,  -22.9,  -23.2,  -23.6,  -22.5,  -21.1,  -21.3,  -20.6,  -20.9,  -20.8,  -21.5,  -22.1,  -23.1,  -23.3,  -22.9,  -22.3,  -23.3,  -25.7,  -27.1,  -27.8,  -27.9,  -27.6,  -26.9,  -27.7,  -28.4,  -29.2,  -30.0,  -29.6,  -28.7,  -28.1,  -28.7,  999.0,  999.0,  999.0,  999.0,  999.0,    5.0,    4.3,    4.1,    3.7,    4.0,    4.1,    3.8,    3.6,    3.3,    3.3,    3.4,    3.2,    3.1,    2.2,    1.4,    0.5,   -0.1,   -1.1,   -2.1,   -3.3,   -4.2,   -4.6,   -4.6,   -4.1,   -3.6,   -3.6,   -3.8,   -4.1,   -4.0,   -3.4,   -3.3,   -3.4,   -3.7,   -3.8,   -3.7,   -3.7,   -3.7,   -3.7,   -3.7,   -3.8,   -4.0,   -4.3,   -4.4,   -4.5,   -4.4,   -4.1,   -3.7,   -3.5,   -3.2,   -3.1,   -3.2,   -3.1,   -3.1
2007/10/29 18:10,  999.0,  999.0,    7.5,  999.0,  999.0,  999.0,  999.0,  999.0,  999.0,  -23.1,  -23.2,  -23.7,  -23.4,  -23.2,  -21.6,  -20.9,  -20.8,  -20.8,  -20.8,  -21.3,  -21.8,  -22.7,  -23.5,  -24.1,  -23.8,  -23.1,  -23.9,  -26.7,  -27.6,  -27.9,  -28.0,  -27.9,  -27.2,  -27.6,  -28.3,  -28.8,  -29.7,  -29.2,  -28.5,  -28.6,  999.0,  999.0,  999.0,  999.0,  999.0,  999.0,  999.0,    4.4,    4.6,    4.6,    4.5,    4.6,    4.2,    3.9,    3.7,    3.5,    3.8,    3.5,    3.2,    2.4,    1.4,    0.6,    0.2,   -0.6,   -1.6,   -2.8,   -3.9,   -4.6,   -4.6,   -4.4,   -3.8,   -3.7,   -3.8,   -4.0,   -4.0,   -3.5,   -2.7,   -2.3,   -2.6,   -3.1,   -3.2,   -3.2,   -3.1,   -3.2,   -3.2,   -3.1,   -3.0,   -2.9,   -3.1,   -3.3,   -3.6,   -3.8,   -3.7,   -3.5,   -3.4,   -3.1,   -2.9,   -2.7,   -2.6
2007/10/29 18:20,  999.0,    6.3,    6.9,    7.4,    8.4,   10.0,    1.3,   -1.7,   -7.7,  -24.0,  -23.5,  999.0,  -23.8,  -23.3,  -21.8,  -20.7,  -20.4,  -20.4,  -20.3,  -22.3,  -24.5,  -25.1,  -25.2,  -24.6,  -23.9,  -23.0,  -24.6,  999.0,  999.0,  999.0,  999.0,  999.0,  999.0,  -27.6,  -27.8,  -28.8,  -29.3,  -29.8,  -29.1,  -28.8,  999.0,  999.0,  999.0,  999.0,  999.0,  999.0,  999.0,    4.1,    4.5,    4.7,    5.2,    5.3,    5.1,    4.9,    4.7,    4.5,    4.3,    4.1,    3.8,    2.9,    1.9,    1.4,    0.5,    0.0,   -1.1,   -2.0,   -3.3,   -4.0,   -4.4,   -4.2,   -4.0,   -3.7,   -3.6,   -3.9,   -3.8,   -3.7,   -3.0,   -2.5,   -2.1,   -2.1,   -2.2,   -2.2,   -2.3,   -2.4,   -2.4,   -2.3,   -2.2,   -2.2,   -2.4,   -2.6,   -2.7,   -3.1,   -3.6,   -3.8,   -3.7,   -3.3,   -2.9,   -2.5,   -2.4
2007/10/29 18:30,    4.0,    6.0,    6.8,    7.3,    8.0,    9.3,    9.8,    9.5,  999.0,  999.0,  999.0,  999.0,  -23.6,  -23.2,  -21.7,  -21.2,  -21.2,  -21.2,  -21.9,  -23.5,  -25.2,  -25.7,  -26.1,  -25.8,  -25.2,  -24.6,  -25.2,  999.0,  999.0,  999.0,  999.0,    7.1,  -10.3,  999.0,  -10.5,    7.1,  -15.1,   -6.1,   -6.0,  -10.6,    6.0,    5.6,    5.5,  999.0,  999.0,  999.0,  999.0,    4.5,    4.6,    4.7,    5.0,    5.1,    5.4,    5.6,    5.7,    5.6,    5.1,    4.7,    4.2,    3.2,    2.5,    1.8,    0.7,   -0.0,   -0.9,   -2.1,   -3.4,   -4.2,   -4.6,   -4.5,   -4.3,   -4.1,   -4.0,   -4.2,   -4.1,   -4.1,   -3.7,   -2.9,   -2.3,   -2.1,   -2.0,   -1.8,   -1.7,   -1.7,   -1.7,   -1.7,   -1.6,   -1.6,   -1.6,   -1.8,   -2.0,   -2.3,   -2.7,   -3.2,   -3.5,   -3.3,   -3.0,   -2.6,   -2.1
2007/10/29 18:40,    4.3,    5.9,    6.7,    7.3,    8.2,    9.4,    9.8,    9.5,   10.2,   11.2,  999.0,   11.3,  999.0,  999.0,  -22.0,  -22.0,  -22.0,  -21.9,  -21.8,  -22.8,  999.0,  999.0,  999.0,  999.0,  999.0,  999.0,  999.0,  999.0,  999.0,  999.0,  999.0,    6.3,    6.4,    7.0,    6.9,    6.4,    5.2,    5.0,    5.4,    5.5,    4.9,    4.2,    4.0,  999.0,  999.0,  999.0,  999.0,    3.8,    3.7,    4.1,    4.7,    4.9,    5.4,    5.6,    5.7,    5.7,    5.4,    4.8,    4.0,    3.2,    2.6,    2.0,    0.8,    0.0,   -0.5,   -1.5,   -2.8,   -3.8,   -4.2,   -4.0,   -3.9,   -3.7,   -3.8,   -4.1,   -4.1,   -3.9,   -3.6,   -3.0,   -2.2,   -1.9,   -1.7,   -1.8,   -1.8,   -1.8,   -1.8,   -1.7,   -1.7,   -1.5,   -1.4,   -1.4,   -1.5,   -1.6,   -1.7,   -2.1,   -2.6,   -2.9,   -2.7,   -2.5,   -2.3
2007/10/29 18:50,  999.0,    6.0,    6.6,    7.1,    8.2,    9.6,    9.4,    9.3,    9.9,   10.9,  999.0,   12.1,  999.0,  999.0,  999.0,  -21.7,  -22.3,  -22.1,  -21.9,  -22.9,   11.3,   12.3,   12.2,  999.0,   11.6,   11.0,    9.9,    9.8,    7.6,    6.7,    5.8,    4.7,    5.3,    6.1,    6.5,    5.7,    5.4,    4.7,    4.9,    5.9,    6.2,    5.2,  999.0,    3.9,  999.0,  999.0,    3.6,    3.5,    3.3,    3.5,    4.1,    5.0,    5.4,    5.7,    5.8,    5.7,    5.7,    5.5,    4.4,    3.4,    3.0,    2.5,    1.4,    0.3,   -0.0,   -0.9,   -2.4,   -3.3,   -3.8,   -3.8,   -3.8,   -3.8,   -3.9,   -3.8,   -3.7,   -3.6,   -3.6,   -3.3,   -3.0,   -2.4,   -1.9,   -1.6,   -1.5,   -1.5,   -1.4,   -1.2,   -1.0,   -1.1,   -1.2,   -1.2,   -1.1,   -1.0,   -1.0,   -1.0,   -1.3,   -2.0,   -2.3,   -2.4,   -2.2
2007/10/29 19:00,    4.2,    5.6,    6.4,    6.9,    8.3,    9.9,   10.2,    9.2,    9.5,   10.8,   11.9,   12.2,   11.6,  999.0,  999.0,   12.7,   11.6,   11.6,   12.1,   11.8,   12.1,  999.0,  999.0,  999.0,   11.8,   10.6,    9.3,    8.7,    8.0,    6.8,    5.3,    5.0,    5.3,    6.3,    6.1,    6.0,    5.6,    5.4,    5.3,    5.4,    5.7,    4.4,    4.7,  999.0,  999.0,  999.0,    3.1,    3.3,    3.5,    3.4,    3.7,    4.9,    5.3,    5.8,    5.7,    5.6,    5.7,    5.6,    4.3,    3.1,    2.7,    2.4,    1.3,    0.3,   -0.2,   -1.1,   -2.3,   -3.3,   -3.7,   -3.5,   -3.2,   -3.0,   -2.9,   -2.9,   -2.9,   -2.7,   -2.6,   -2.5,   -2.4,   -2.4,   -2.0,   -1.5,   -1.2,   -1.1,   -1.1,   -0.9,   -0.7,   -0.5,   -0.8,   -1.1,   -0.9,   -0.7,   -0.7,   -0.7,   -1.3,   -1.7,   -2.3,   -2.6,   -2.6
2007/10/29 19:10,    3.5,    4.9,    5.6,    6.2,    7.4,    9.4,    9.8,    9.2,    9.4,   10.7,   12.4,   12.3,   11.0,   12.0,   12.3,   12.3,   11.6,   11.8,  999.0,  999.0,  999.0,  999.0,  999.0,  999.0,  999.0,    8.5,    8.2,    8.1,    7.2,    6.6,    4.5,    3.9,    4.0,    4.8,    4.8,    5.2,    4.1,    4.4,    4.1,    4.3,    4.5,    4.7,    4.6,  999.0,  999.0,  999.0,    3.0,    3.1,    3.6,    3.4,    4.0,    4.9,    5.5,    5.8,    5.8,    5.8,    5.7,    4.8,    3.6,    2.7,    2.6,    2.4,    1.3,    0.4,   -0.3,   -1.3,   -2.4,   -3.2,   -3.3,   -3.1,   -2.8,   -2.8,   -2.9,   -2.9,   -2.8,   -2.8,   -2.7,   -2.1,   -1.7,   -1.5,   -1.4,   -1.2,   -1.1,   -1.1,   -0.8,   -0.7,   -0.6,   -0.6,   -0.7,   -0.9,   -0.9,   -0.9,   -1.0,   -1.3,   -1.6,   -2.1,   -2.6,   -2.8,   -3.0
2007/10/29 19:20,  999.0,    4.6,    5.2,    6.1,    7.8,    9.1,    9.8,    9.6,   10.2,   11.5,   12.4,   11.7,   10.9,   11.5,   12.3,   12.3,   11.9,   12.7,   12.7,   13.0,   13.0,   13.1,   12.2,   11.1,   10.5,    8.5,    7.9,    7.2,    6.6,    5.7,    4.6,    3.7,    3.4,    4.1,    4.9,    5.2,    5.4,    5.1,    5.1,    5.4,    5.4,    5.2,    5.5,  999.0,  999.0,  999.0,    3.5,    3.4,    3.5,    3.5,    4.0,    4.6,    5.4,    5.6,    5.6,    5.6,    5.5,    4.4,    3.0,    2.4,    2.4,    2.5,    1.5,    0.5,   -0.1,   -1.2,   -2.2,   -3.0,   -3.2,   -3.0,   -2.9,   -3.0,   -2.8,   -2.8,   -2.8,   -2.8,   -3.0,   -3.0,   -2.7,   -2.2,   -1.6,   -1.1,   -1.2,   -1.0,   -0.3,   -0.2,   -0.2,   -0.0,   -0.0,   -0.3,   -0.6,   -0.9,   -1.1,   -1.6,   -1.9,   -2.5,   -3.2,   -3.4,   -3.6
2007/10/29 19:30,  999.0,    4.6,    5.6,    6.6,    8.2,   10.0,   10.3,    9.4,    9.7,   11.0,   11.5,   11.2,   11.1,   10.8,   11.6,   12.0,   12.2,   12.5,   12.5,   13.2,   12.9,   11.4,   10.6,   10.5,    9.7,    7.4,    7.3,    6.7,    6.8,    6.8,    5.7,    3.9,    3.3,    3.4,    4.1,    4.7,    4.8,    4.6,    4.9,    6.1,    5.8,    6.3,    6.6,  999.0,  999.0,  999.0,    4.7,    3.7,    3.1,    3.6,    4.0,    4.3,    4.9,    5.5,    5.3,    5.2,    5.1,    3.8,    2.4,    2.1,    2.3,    2.1,    1.5,    0.7,   -0.1,   -1.0,   -2.1,   -2.8,   -3.0,   -3.0,   -2.9,   -2.5,   -2.2,   -2.4,   -2.6,   -2.6,   -2.9,   -3.4,   -3.4,   -3.3,   -2.6,   -1.6,   -1.1,   -1.1,   -0.6,   -0.2,    0.0,   -0.1,   -0.4,   -0.7,   -0.8,   -1.0,   -1.5,   -2.0,   -2.4,   -2.8,   -3.3,   -3.6,   -3.5
2007/10/29 19:40,  999.0,    4.1,    5.7,    6.7,    7.8,    9.5,    9.9,    9.0,    9.9,   10.5,   11.6,   11.5,   11.4,   11.1,   11.1,   12.4,   13.1,   12.9,   13.5,   13.3,   12.4,   11.4,   10.3,   10.3,    8.3,    7.0,    7.3,    7.5,    7.5,    7.3,    6.7,    5.2,    3.6,    4.0,    3.8,    3.6,    3.7,    3.9,    4.5,    5.0,    4.1,    4.9,    5.9,    5.9,  999.0,  999.0,    4.6,    3.5,    3.1,    3.3,    3.5,    3.8,    4.6,    5.2,    5.4,    5.3,    5.1,    4.1,    2.8,    2.6,    2.7,    2.2,    1.7,    1.0,    0.4,   -0.4,   -1.2,   -2.3,   -2.7,   -2.9,   -2.7,   -2.4,   -2.4,   -2.4,   -2.2,   -2.1,   -2.4,   -2.8,   -3.0,   -3.0,   -2.7,   -1.6,   -0.9,   -1.1,   -0.9,   -0.5,   -0.3,   -0.4,   -0.7,   -0.9,   -1.2,   -1.2,   -1.4,   -2.0,   -2.4,   -2.8,   -3.5,   -3.9,   -4.1
2007/10/29 19:50,  999.0,    4.9,    5.9,    6.5,    7.1,    9.6,   10.1,    9.9,   10.2,   10.7,   11.6,   11.5,   11.4,   11.5,   11.5,   12.5,   13.3,   13.5,   13.2,   12.6,   12.0,   11.0,   10.4,   10.0,    7.7,    6.5,    6.6,    7.8,    7.9,    7.5,    6.5,    4.5,    3.2,    3.2,    3.7,    3.7,    3.7,    4.1,    4.2,    4.3,    4.4,    5.4,    5.5,  999.0,  999.0,  999.0,    4.2,    3.0,    2.6,    3.1,    3.3,    3.4,    4.1,    4.8,    5.1,    5.0,    4.9,    4.2,    3.4,    3.0,    3.0,    2.5,    2.1,    1.6,    0.9,    0.3,   -0.5,   -1.6,   -2.4,   -2.8,   -2.8,   -2.6,   -2.7,   -2.8,   -2.9,   -2.7,   -2.8,   -2.9,   -3.1,   -3.3,   -2.8,   -1.9,   -1.0,   -1.0,   -1.0,   -0.7,   -0.4,   -0.4,   -0.8,   -1.1,   -1.3,   -1.5,   -1.8,   -2.2,   -2.6,   -3.5,   -3.9,   -4.4,   -4.5
2007/10/29 20:00,  999.0,  999.0,    6.0,    5.7,    7.1,    8.7,    9.6,    9.6,    9.9,   10.9,   10.8,   11.3,   11.6,   11.0,   11.4,   11.9,   12.5,   11.8,   12.1,   12.9,   12.4,   11.6,   10.7,   10.0,    8.2,    6.7,    6.7,    7.8,    7.5,    7.2,    6.0,    4.5,    3.8,    3.6,    3.9,    4.0,    4.2,    4.1,    3.9,    3.9,    3.4,    3.8,    4.5,    5.3,    5.4,    4.0,    3.4,    2.2,    2.6,    2.8,    3.2,    3.6,    4.1,    4.5,    4.6,    4.6,    5.0,    4.7,    3.9,    3.3,    3.2,    2.8,    2.4,    2.1,    1.3,    0.6,   -0.2,   -0.9,   -1.7,   -2.2,   -2.4,   -2.5,   -2.8,   -3.0,   -3.1,   -3.2,   -3.0,   -3.1,   -3.1,   -3.3,   -3.1,   -2.5,   -1.7,   -1.2,   -1.3,   -1.4,   -1.0,   -0.8,   -1.0,   -1.4,   -1.7,   -1.8,   -1.9,   -2.1,   -2.5,   -2.8,   -3.3,   -3.9,   -4.7
2007/10/29 20:10,    7.4,    7.4,    5.1,    5.4,    7.3,    8.2,    8.5,    9.4,    9.6,   10.8,   11.1,   11.6,   11.6,   10.6,   11.2,   12.2,   12.2,   11.6,   12.0,   12.5,   12.1,   11.0,   10.0,    8.9,    7.2,    6.3,    6.9,    7.4,    7.0,    7.1,    7.1,    6.6,    6.0,    5.2,    5.0,    4.6,    4.3,    4.3,    4.3,    3.9,    3.4,    3.1,    4.0,    4.9,    5.5,    4.5,    3.3,    2.6,    2.9,    3.1,    3.4,    3.8,    4.3,    4.5,    4.5,    4.3,    4.3,    4.5,    4.3,    3.7,    3.3,    2.9,    2.6,    2.4,    1.8,    1.0,    0.2,   -0.4,   -1.2,   -2.0,   -2.3,   -2.4,   -2.7,   -3.3,   -3.7,   -4.2,   -4.0,   -4.0,   -3.7,   -3.4,   -3.1,   -3.0,   -2.7,   -2.1,   -1.7,   -1.9,   -2.0,   -1.6,   -1.5,   -1.6,   -1.7,   -1.8,   -1.8,   -1.8,   -2.1,   -2.5,   -2.7,   -3.2,   -4.0
2007/10/29 20:20,  999.0,  999.0,  999.0,    4.5,    6.2,    7.1,    7.7,    8.6,    9.5,   11.4,   11.8,   10.8,   11.4,   10.8,   11.7,   12.5,   12.2,   11.8,   12.5,   13.4,   13.0,   11.8,   10.7,    9.1,    7.6,    6.4,    6.8,    7.0,    6.5,    6.7,    7.1,    7.1,    6.8,    6.0,    4.6,    3.9,    3.9,    3.9,    4.1,    4.0,    3.7,    3.3,    3.7,    4.2,    4.6,    4.6,    3.6,    2.6,    2.3,    2.7,    2.9,    3.2,    3.7,    4.4,    4.7,    4.5,    3.9,    3.9,    3.8,    3.8,    3.5,    3.3,    3.0,    2.5,    2.0,    1.4,    0.8,   -0.1,   -0.7,   -1.5,   -2.2,   -2.5,   -2.3,   -2.6,   -3.2,   -4.0,   -4.2,   -4.0,   -3.6,   -3.3,   -3.1,   -3.0,   -2.9,   -2.4,   -1.9,   -1.7,   -2.1,   -2.2,   -1.9,   -1.8,   -1.8,   -2.0,   -1.9,   -2.0,   -2.5,   -2.9,   -2.9,   -3.2,   -3.4
2007/10/29 20:30,  999.0,  999.0,    3.7,    4.6,    6.2,    6.9,    7.8,    8.6,    9.4,   11.1,   12.2,   11.2,   11.3,   10.8,   11.0,   11.6,   11.2,   11.2,   10.9,   11.1,   10.3,   10.1,    9.4,    8.5,    7.7,    6.3,    6.7,    7.4,    8.3,    8.4,    8.6,    8.0,    7.9,    7.7,    5.7,    4.8,    5.0,    4.9,    5.3,    5.4,    5.1,    5.1,    4.3,  999.0,    4.2,    4.6,    4.1,    3.2,    3.0,    2.9,    2.7,    3.1,    3.6,    4.7,    5.2,    4.8,    3.9,    3.9,    4.0,    4.0,    3.7,    3.2,    2.6,    2.3,    2.1,    1.6,    0.8,   -0.1,   -0.8,   -1.5,   -2.3,   -2.6,   -2.6,   -2.8,   -3.5,   -4.3,   -4.7,   -4.4,   -3.8,   -3.2,   -3.0,   -3.1,   -2.8,   -2.6,   -2.2,   -2.0,   -2.1,   -2.4,   -2.6,   -2.4,   -2.3,   -2.5,   -2.5,   -2.7,   -2.8,   -3.4,   -3.8,   -4.0,   -4.0
2007/10/29 20:40,  999.0,  999.0,  999.0,  999.0,  999.0,  999.0,    8.0,    7.5,    7.2,    9.8,   11.6,   10.6,   11.1,   11.2,   12.1,   12.6,   12.2,   12.5,   12.8,   11.7,   11.0,   10.5,   10.4,    9.8,    8.8,    7.6,    7.7,    6.9,    8.0,    8.3,    7.0,    5.6,    5.1,    4.8,    3.7,    2.2,    1.4,    2.1,    2.3,    1.3,    1.3,    2.3,    3.3,    4.1,    4.0,    4.1,    4.6,    3.6,    3.1,    2.9,    2.9,    3.3,    4.3,    5.1,    5.2,    3.8,    3.4,    3.6,    3.7,    3.6,    3.1,    2.9,    2.5,    2.3,    2.3,    2.1,    1.2,    0.1,   -0.5,   -1.3,   -2.1,   -2.7,   -3.1,   -3.9,   -4.6,   -5.0,   -4.7,   -4.2,   -3.8,   -3.5,   -3.2,   -2.9,   -2.9,   -2.8,   -2.9,   -2.8,   -2.6,   -2.5,   -2.6,   -2.7,   -2.4,   -2.2,   -2.5,   -2.9,   -3.2,   -3.5,   -4.1,   -4.4,   -4.4
2007/10/29 20:50,  999.0,    8.4,  999.0,  999.0,  999.0,  999.0,  999.0,    7.9,    9.0,   10.5,   11.5,   10.4,   10.8,   11.6,   12.4,   12.4,   12.6,   14.0,   12.8,   11.5,   10.2,    8.9,    8.2,    7.9,    7.7,    6.9,    6.3,    5.8,    6.0,    4.4,    3.1,    1.8,    1.9,    1.4,    1.4,    1.0,   -0.2,   -0.2,    0.1,    0.2,   -0.0,    1.2,    2.6,    3.6,    3.9,    3.7,    4.1,    3.9,    3.4,    3.0,    3.4,    4.2,    5.0,    5.5,    4.4,    2.8,    2.3,    2.6,    2.7,    2.7,    2.8,    2.7,    2.6,    2.4,    2.4,    2.3,    1.8,    0.7,   -0.4,   -1.1,   -1.9,   -2.6,   -3.1,   -3.8,   -4.3,   -4.6,   -4.8,   -4.8,   -4.3,   -4.1,   -4.0,   -3.6,   -2.9,   -2.7,   -2.9,   -3.0,   -2.8,   -2.4,   -2.3,   -2.4,   -2.3,   -2.1,   -2.3,   -2.7,   -3.1,   -3.6,   -4.2,   -4.3,   -4.5
2007/10/29 21:00,    6.4,    5.5,  999.0,  999.0,  999.0,  999.0,    6.3,    7.8,    8.8,   11.0,   11.4,   10.7,   10.9,   11.7,   12.1,   11.8,   12.5,   13.8,   12.2,   10.6,   10.0,    9.4,    8.5,    8.3,    8.3,    7.0,    6.2,    5.2,    5.8,    4.5,    3.6,    3.0,    2.0,    1.6,    1.1,    1.9,    1.9,    2.1,    1.7,    1.4,    1.7,    2.1,    2.8,    3.4,    3.7,    4.0,  999.0,    4.0,    3.3,    3.0,    3.5,    4.3,    4.9,    5.1,    4.1,    2.8,    2.2,    2.2,    2.3,    2.3,    2.7,    3.0,    3.1,    3.0,    2.7,    2.7,    2.6,    1.9,    0.5,   -0.5,   -1.1,   -1.9,   -2.5,   -3.2,   -3.9,   -4.3,   -4.5,   -4.6,   -4.5,   -4.1,   -3.8,   -3.6,   -3.1,   -2.3,   -2.2,   -2.4,   -2.6,   -2.6,   -2.3,   -2.1,   -2.2,   -2.3,   -2.5,   -2.9,   -3.2,   -3.4,   -3.8,   -4.1,   -4.4
2007/10/29 21:10,  999.0,    2.3,    3.0,    3.3,    4.0,    4.5,    5.8,    7.7,    9.6,   11.6,   11.2,   10.8,   11.0,   11.3,   10.8,   10.8,   13.0,   13.4,   11.9,   10.1,    8.8,    8.6,    8.0,    7.6,    8.2,    7.0,    7.3,    7.4,    8.7,    8.0,    6.8,    7.0,    6.9,    6.1,    5.4,    4.8,    4.5,    4.3,    3.9,    3.9,    4.2,    3.8,    3.9,    3.9,    3.6,    3.8,    4.1,    3.9,    3.1,    2.8,    3.6,    3.9,    4.5,    4.7,    4.1,    2.9,    2.3,    2.1,    2.3,    2.6,    2.8,    3.1,    3.0,    2.8,    2.7,    2.7,    2.7,    2.3,    1.3,    0.1,   -0.5,   -1.1,   -1.7,   -2.4,   -3.2,   -3.9,   -4.3,   -4.5,   -4.1,   -3.9,   -3.6,   -3.4,   -3.2,   -2.7,   -2.0,   -2.0,   -2.2,   -2.4,   -2.4,   -2.2,   -2.1,   -2.2,   -2.4,   -2.6,   -2.6,   -3.0,   -3.9,   -4.6,   -4.9
2007/10/29 21:20,  999.0,    1.6,    2.3,    3.1,    4.2,    3.6,    6.2,    7.2,    9.7,   11.2,   10.8,   11.3,   11.5,   11.3,   10.8,   12.0,   13.8,   13.3,   11.7,   10.6,    9.5,    9.4,    9.8,   10.1,   10.2,    9.7,    8.8,    8.5,    9.3,    8.3,    7.9,    8.4,    7.7,    6.6,    5.9,    5.0,    4.1,    4.2,    3.5,    3.8,    4.3,    4.3,    4.7,    4.5,    4.4,    3.5,    3.7,    3.7,    2.8,    2.4,    3.1,    3.1,    3.6,    4.0,    3.7,    3.1,    2.4,    2.1,    2.2,    2.4,    2.7,    2.9,    2.7,    2.5,    2.3,    2.4,    2.5,    2.3,    1.9,    0.9,   -0.0,   -0.5,   -1.0,   -1.5,   -2.1,   -3.0,   -3.8,   -4.5,   -4.4,   -3.9,   -3.6,   -3.5,   -3.3,   -3.2,   -2.8,   -2.2,   -2.2,   -2.5,   -2.7,   -2.8,   -2.9,   -2.9,   -3.0,   -3.0,   -3.0,   -3.2,   -4.1,   -4.9,   -5.5
2007/10/29 21:30,    0.0,    1.1,    1.7,    2.9,    3.3,    3.6,    6.2,    8.0,   10.8,   10.8,   11.0,   11.3,   11.2,   11.1,   11.3,   12.7,   13.4,   13.2,   12.1,   11.1,    9.8,    9.0,    9.8,   10.5,   10.9,    9.7,    8.9,    7.8,    8.7,    8.6,    8.4,    7.6,    7.6,    7.0,    5.6,    4.5,    4.5,    4.0,    3.5,    3.8,    4.2,    4.2,    4.8,    4.3,    4.2,    3.8,    3.5,    3.4,    2.6,    2.1,    2.6,    2.8,    3.3,    3.5,    3.2,    2.9,    2.4,    2.1,    2.3,    2.3,    2.5,    2.7,    2.3,    1.9,    1.6,    1.7,    2.1,    2.2,    2.1,    1.6,    0.7,   -0.1,   -0.9,   -1.4,   -1.5,   -1.9,   -2.5,   -3.4,   -4.2,   -4.2,   -3.6,   -3.3,   -3.2,   -3.1,   -3.1,   -3.0,   -2.5,   -2.2,   -2.4,   -2.6,   -2.8,   -3.0,   -2.9,   -2.7,   -2.6,   -2.5,   -3.0,   -3.7,   -4.6
2007/10/29 21:40,    0.3,    0.9,    1.8,    2.7,    3.4,    4.1,    6.0,    7.3,   10.2,   10.1,   10.3,   10.6,   10.2,   10.9,   12.5,   13.1,   12.3,   12.4,   11.5,   11.3,    9.8,    8.6,    8.4,    8.2,    8.9,    9.2,    8.6,    7.3,    7.3,    7.8,    7.5,    7.1,    6.3,    6.0,    5.1,    4.2,    4.3,    4.6,    3.9,    3.9,    3.4,  999.0,    2.9,  999.0,  999.0,    3.4,    3.4,    3.1,    2.4,    1.9,    2.4,    2.6,    3.3,    3.7,    3.7,    3.4,    2.9,    2.6,    2.3,    2.1,    2.1,    2.3,    2.1,    2.0,    1.9,    1.9,    2.1,    2.2,    2.3,    1.9,    1.1,    0.1,   -0.8,   -1.3,   -1.9,   -2.0,   -2.0,   -2.4,   -3.0,   -3.7,   -4.1,   -3.9,   -3.3,   -3.1,   -3.0,   -3.1,   -3.1,   -2.9,   -2.5,   -2.4,   -2.6,   -2.9,   -3.0,   -2.7,   -2.5,   -2.5,   -2.7,   -3.3,   -3.9
2007/10/29 21:50,    0.4,    0.6,    1.6,    2.4,    3.2,    4.3,    6.5,    7.6,    9.7,   10.0,    9.8,   10.6,   10.7,   11.5,   11.9,   11.7,   11.3,   10.3,   10.0,    8.9,    8.4,    7.9,    7.0,    7.2,    7.3,    8.0,    7.2,    6.4,    6.9,    7.1,    7.9,    6.9,    6.2,    6.1,    6.0,    5.9,    5.5,    4.6,    3.7,  999.0,  999.0,    3.2,    4.4,  999.0,  999.0,  999.0,    3.1,    2.8,    1.9,    1.8,    2.1,    2.4,    3.2,    3.7,    3.8,    3.7,    3.5,    3.2,    2.7,    2.2,    1.9,    1.7,    1.6,    1.5,    1.6,    1.8,    2.1,    2.4,    2.4,    2.1,    1.3,    0.4,   -0.6,   -1.2,   -1.7,   -2.0,   -2.0,   -1.9,   -2.2,   -2.8,   -3.4,   -3.7,   -3.5,   -3.1,   -2.8,   -2.8,   -2.9,   -2.8,   -2.7,   -2.3,   -2.4,   -2.5,   -2.6,   -2.6,   -2.2,   -2.0,   -2.1,   -2.7,   -3.0
2007/10/29 22:00,    0.4,    0.5,    2.0,    2.3,    3.6,    4.9,    6.3,    7.4,    9.6,    9.6,    9.7,   10.3,   10.9,   11.3,   11.3,   11.4,   10.5,   10.5,    9.5,    8.7,    8.0,    7.4,    6.7,    6.6,    6.8,    6.9,    6.6,    6.5,  999.0,  999.0,  999.0,  999.0,  999.0,  999.0,  999.0,  999.0,  999.0,  999.0,  999.0,    2.7,    2.8,    3.3,    2.9,  999.0,  999.0,  999.0,  999.0,    2.3,    1.5,    1.1,    1.4,    1.9,    2.7,    3.3,    3.6,    3.7,    3.8,    3.5,    3.1,    2.7,    2.3,    1.5,    1.3,    1.2,    1.3,    1.5,    1.7,    2.0,    2.0,    2.0,    1.5,    0.6,    0.0,   -0.5,   -1.2,   -1.8,   -1.8,   -1.6,   -1.6,   -2.2,   -2.7,   -3.4,   -3.7,   -3.8,   -3.6,   -3.3,   -3.3,   -3.3,   -3.1,   -3.0,   -3.0,   -2.8,   -2.8,   -2.8,   -2.6,   -2.4,   -2.1,   -2.3,   -2.6
2007/10/29 22:10,   -0.4,    0.5,    1.5,    2.1,    3.4,    4.7,    5.7,    6.7,    8.9,    8.6,    8.9,    9.5,    9.8,   10.3,   10.9,   10.8,  999.0,   10.2,    9.6,    9.1,    8.6,    8.0,    7.3,    6.5,    7.0,    7.4,    7.3,  999.0,  999.0,  999.0,  999.0,  999.0,  999.0,  -27.3,  999.0,  999.0,  999.0,  999.0,  999.0,    4.8,    4.5,    4.3,  999.0,  999.0,  999.0,    4.1,    3.0,    2.2,    1.4,    0.6,    0.7,    1.3,    2.1,    2.8,    3.3,    3.6,    3.7,    3.7,    3.6,    3.3,    2.7,    2.0,    1.4,    1.0,    1.1,    1.3,    1.6,    1.8,    2.0,    1.9,    1.8,    1.4,    0.6,    0.1,   -0.8,   -1.7,   -2.2,   -2.0,   -1.6,   -1.6,   -2.1,   -2.7,   -3.6,   -3.9,   -3.7,   -3.6,   -3.5,   -3.7,   -3.6,   -3.4,   -3.4,   -3.4,   -3.4,   -3.2,   -3.1,   -2.9,   -2.8,   -2.8,   -2.8
2007/10/29 22:20,   -0.6,    0.4,    1.5,    2.1,    3.6,    5.1,    5.7,    6.6,    8.7,    7.8,    8.5,    9.1,   10.0,   10.1,  999.0,  999.0,  999.0,  999.0,  -25.3,  -25.2,  999.0,  999.0,  999.0,  999.0,  999.0,  999.0,  999.0,  999.0,  -25.9,  -25.6,  -25.4,  -26.3,  -27.0,  999.0,  999.0,  999.0,  999.0,  999.0,    5.3,    3.9,    4.2,    4.0,    4.6,  999.0,  999.0,  999.0,    2.8,    1.9,    1.2,    0.4,    0.2,    0.6,    1.4,    2.2,    2.6,    3.0,    3.2,    3.2,    3.1,    2.8,    2.5,    2.0,    1.4,    1.0,    1.1,    1.2,    1.6,    2.1,    2.4,    2.2,    2.0,    1.8,    0.9,    0.1,   -0.8,   -1.7,   -2.3,   -2.4,   -2.1,   -1.9,   -2.0,   -2.5,   -3.2,   -3.6,   -3.7,   -3.6,   -3.6,   -3.6,   -3.6,   -3.5,   -3.4,   -3.2,   -3.3,   -3.2,   -2.9,   -3.0,   -3.1,   -3.0,   -3.0
2007/10/29 22:30,   -0.7,    0.0,    1.2,    2.2,    3.5,    4.4,    5.2,    6.1,    8.7,    7.9,    9.1,    9.2,    9.5,    9.8,  999.0,  999.0,  999.0,  999.0,  999.0,   -7.5,  999.0,  999.0,  999.0,  999.0,    8.1,    7.8,  999.0,  999.0,  999.0,   -8.3,   -7.9,  999.0,  999.0,  999.0,  999.0,  999.0,    5.0,    4.2,    4.2,    4.8,    3.8,    4.1,    3.8,    3.9,  999.0,  999.0,  999.0,    1.5,    0.9,    0.2,   -0.0,    0.0,    0.5,    1.6,    2.1,    2.3,    2.6,    2.7,    2.5,    2.2,    2.0,    1.8,    1.3,    1.0,    1.1,    1.2,    1.4,    2.0,    2.5,    2.5,    2.2,    1.8,    0.9,    0.0,   -0.7,   -1.4,   -1.9,   -2.2,   -2.2,   -2.2,   -2.3,   -2.5,   -2.9,   -3.2,   -3.3,   -3.4,   -3.3,   -3.2,   -3.3,   -3.2,   -3.2,   -3.0,   -3.1,   -3.0,   -2.8,   -3.0,   -3.1,   -2.9,   -2.9
2007/10/29 22:40,   -1.9,   -0.3,    0.8,    1.9,    2.9,    4.4,    4.7,    6.5,    8.4,    7.7,    9.3,    8.7,    9.0,    9.7,   10.2,   10.7,   11.3,   11.2,   11.5,   10.9,   10.0,    8.8,    8.4,    8.0,    7.5,    7.7,    7.9,    8.8,    9.0,    8.9,    9.4,    9.2,    8.6,    8.3,    6.7,    5.5,    5.1,    4.7,    4.6,    3.9,    3.7,    4.4,    4.7,  999.0,  999.0,  999.0,  999.0,    1.6,    0.8,    0.1,   -0.2,   -0.1,   -0.0,    0.4,    1.2,    1.9,    2.5,    2.6,    2.3,    1.9,    1.7,    1.5,    1.2,    1.1,    1.0,    1.2,    1.4,    2.0,    2.6,    2.6,    2.5,    2.2,    1.2,    0.2,   -0.4,   -0.8,   -1.1,   -1.6,   -2.0,   -2.0,   -2.3,   -2.7,   -2.8,   -2.9,   -3.1,   -3.2,   -2.8,   -3.0,   -3.1,   -3.1,   -3.1,   -3.2,   -3.3,   -3.3,   -2.9,   -3.1,   -3.2,   -3.1,   -3.3
2007/10/29 22:50,   -2.1,   -0.8,    0.4,    1.8,    3.2,    3.9,    4.8,    5.8,    8.2,    7.5,    9.2,    9.1,    9.0,    9.5,   10.1,   10.7,   10.9,   10.9,   11.1,   11.1,   10.6,    9.7,    9.3,    8.3,    7.7,    8.0,    8.2,    8.4,    8.0,    8.2,    8.4,    9.2,    8.3,    7.8,    6.8,    6.3,    5.4,    4.5,    4.3,    4.4,    5.0,    4.9,    4.9,  999.0,  999.0,  999.0,    3.7,    2.2,    0.8,   -0.1,   -0.4,   -0.4,   -0.1,    0.0,    0.3,    1.2,    2.2,    2.6,    2.1,    1.6,    1.2,    1.2,    1.2,    1.2,    1.0,    1.0,    1.1,    1.8,    2.4,    2.5,    2.3,    2.2,    1.7,    0.5,   -0.2,   -0.6,   -0.9,   -1.3,   -1.7,   -1.9,   -2.2,   -2.9,   -3.3,   -3.4,   -3.5,   -3.4,   -3.2,   -3.2,   -3.3,   -3.4,   -3.4,   -3.5,   -3.6,   -3.5,   -3.4,   -3.0,   -3.1,   -3.5,   -4.0
2007/10/29 23:00,   -2.2,   -1.2,    0.3,    1.9,    3.3,    3.9,    5.0,    6.5,    8.7,    7.6,    8.5,   10.2,    9.5,    9.5,    9.7,   10.5,   11.0,   10.9,   10.2,   10.5,   10.4,    9.5,    8.4,    7.9,    6.5,    6.7,    7.4,    7.3,    6.7,    8.1,    9.1,    9.3,    9.5,    8.5,    6.5,    6.0,    4.8,    4.0,    4.4,    4.8,    5.3,    5.6,    5.8,    5.8,  999.0,  999.0,  999.0,    2.7,    1.1,    0.1,   -0.2,   -0.5,   -0.4,   -0.0,    0.1,    0.5,    1.7,    2.6,    2.4,    1.8,    1.4,    1.4,    1.6,    1.5,    1.5,    1.3,    1.2,    1.5,    2.2,    2.5,    2.5,    2.3,    2.0,    1.3,    0.2,   -0.4,   -0.6,   -0.9,   -1.3,   -1.7,   -1.9,   -2.3,   -2.8,   -3.4,   -3.6,   -3.5,   -3.2,   -3.1,   -3.1,   -3.2,   -3.5,   -3.6,   -3.6,   -3.7,   -3.7,   -3.5,   -3.2,   -3.6,   -4.0
2007/10/29 23:10,   -3.1,   -1.7,   -0.0,    1.3,    2.7,    3.5,    4.2,    6.2,    8.2,    7.6,    7.2,    9.4,    9.1,    8.3,    8.8,   10.0,   11.0,   10.8,   10.2,   10.7,   10.8,   10.7,   10.6,   10.2,    9.2,    8.4,    7.8,    6.7,    7.5,    8.1,    9.1,    8.9,    9.1,    6.7,    5.1,    4.5,    4.0,    4.2,    3.8,    4.2,    5.2,    5.7,    6.3,    5.4,  999.0,  999.0,  999.0,    3.3,    1.6,    0.4,   -0.4,   -0.7,   -0.8,   -0.5,   -0.1,    0.4,    1.2,    2.3,    2.4,    1.8,    1.5,    1.5,    1.5,    1.5,    1.4,    1.4,    1.2,    1.3,    2.0,    2.5,    2.6,    2.6,    2.5,    2.0,    0.9,    0.1,   -0.5,   -0.7,   -1.0,   -1.5,   -1.8,   -1.9,   -2.3,   -2.9,   -3.3,   -3.2,   -3.0,   -2.8,   -2.9,   -2.8,   -3.1,   -3.3,   -3.3,   -3.5,   -3.7,   -3.5,   -3.4,   -3.5,   -4.1
2007/10/29 23:20,   -2.4,   -1.9,   -0.4,    1.4,    2.9,    3.5,    4.3,    5.0,    7.4,    7.8,    6.7,    8.7,    9.2,    7.9,    8.0,    9.3,   10.3,   10.0,   10.0,   10.3,   10.1,   10.2,   10.8,   10.7,   10.2,    8.7,    7.8,    7.5,    7.9,    8.2,    8.8,    9.2,    9.3,    7.8,    6.4,    5.3,    4.7,    4.0,    3.7,    4.5,    5.5,    5.6,    5.4,  999.0,  999.0,  999.0,  999.0,    3.6,    1.8,    0.7,   -0.0,   -0.5,   -0.9,   -0.8,   -0.3,    0.4,    1.1,    1.8,    2.6,    2.2,    1.6,    1.4,    1.6,    1.5,    1.6,    1.8,    1.7,    1.4,    1.7,    2.5,    2.6,    2.6,    2.6,    2.3,    1.4,    0.6,   -0.1,   -0.4,   -0.5,   -0.9,   -1.2,   -1.3,   -1.5,   -2.0,   -2.4,   -2.8,   -2.8,   -2.8,   -2.8,   -2.9,   -3.2,   -3.4,   -3.5,   -3.6,   -3.8,   -3.8,   -3.4,   -3.4,  999.0
2007/10/29 23:30,   -2.0,   -1.2,   -0.1,    1.4,    3.1,    4.0,    4.5,    5.6,    7.7,    8.9,    8.1,    9.0,   10.0,    9.0,    8.1,    9.6,   10.0,   10.2,   10.5,   10.6,   10.7,   10.6,   10.7,   10.9,   10.4,    9.6,    8.4,    7.6,    8.0,    8.5,    8.0,    8.3,    8.4,    8.0,    6.5,    5.8,    5.0,    4.8,    4.2,    4.4,    4.2,    4.1,    4.3,    5.3,  999.0,  999.0,  999.0,    4.0,    2.7,    1.6,    0.7,   -0.1,   -0.8,   -1.0,   -0.6,   -0.2,    0.3,    1.2,    2.0,    2.5,    1.9,    1.5,    1.4,    1.4,    1.6,    1.7,    1.5,    1.3,    1.3,    1.8,    2.2,    2.1,    2.1,    2.1,    1.9,    1.2,    0.2,   -0.4,   -0.6,   -0.7,   -1.1,   -1.5,   -1.9,   -2.2,   -2.4,   -2.7,   -3.0,   -3.2,   -3.2,   -3.3,   -3.3,   -3.4,   -3.5,   -3.5,   -3.6,   -3.7,   -3.7,   -3.6,   -3.5
2007/10/29 23:40,   -2.2,   -0.9,    0.3,    1.6,    3.4,    4.1,    5.0,    5.9,    8.2,    9.5,    9.1,    9.6,   10.2,    9.9,    8.9,    9.3,    9.7,    9.9,    9.7,    9.9,   10.3,   10.2,   10.3,   10.2,   10.7,    9.9,    8.5,    8.4,    8.9,    8.9,    7.9,    7.4,    7.5,    7.6,    6.8,    5.8,    5.3,    4.4,    3.9,    4.0,    3.7,    4.3,    5.2,    5.1,  999.0,  999.0,  999.0,    5.0,    3.5,    2.2,    1.0,    0.2,   -0.3,   -0.9,   -1.0,   -1.1,   -0.8,   -0.1,    0.9,    1.9,    2.3,    1.4,    1.0,    1.2,    1.4,    1.6,    1.5,    1.1,    1.1,    1.4,    2.0,    2.5,    2.3,    2.1,    2.1,    1.9,    0.9,    0.1,   -0.7,   -0.8,   -1.0,   -1.4,   -1.8,   -2.0,   -2.3,   -2.4,   -2.5,   -2.8,   -3.2,   -3.2,   -3.4,   -3.6,   -3.9,   -4.1,   -4.3,   -4.4,   -4.5,   -4.5,   -4.4
2007/10/29 23:50,   -2.3,   -0.2,    0.4,    1.6,    3.2,    4.6,    5.2,    6.0,    7.0,    8.3,    8.1,    7.9,    9.4,    9.3,    9.5,    9.5,    9.7,   10.2,   10.3,   10.7,   11.3,   11.2,   11.3,   10.6,   10.5,   10.4,    9.6,    8.9,    9.0,    8.9,    8.8,    7.5,    7.2,    7.4,    6.6,    5.6,    4.7,    4.2,    3.4,    3.3,    3.6,    4.4,    4.6,  999.0,  999.0,  999.0,  999.0,    4.8,    4.1,    2.5,    1.1,   -0.0,   -0.5,   -1.0,   -1.3,   -1.4,   -1.4,   -0.9,    0.1,    1.5,    2.3,    1.6,    1.1,    1.1,    1.3,    1.4,    1.2,    0.6,    0.6,    0.9,    1.5,    2.1,    2.2,    2.0,    1.6,    1.5,    1.0,    0.2,   -0.6,   -1.1,   -1.3,   -1.6,   -1.9,   -2.2,   -2.4,   -2.8,   -2.9,   -3.1,   -3.5,   -3.7,   -3.8,   -3.8,   -3.9,   -4.1,   -4.3,   -4.2,   -4.1,   -4.2,   -4.2
